GW3448 Weather Reports


Display with metric or nautical units.
time (UTC)temp
F
wind
direction
speed
MPH
gust
MPH
rain 1hr
in
rain 24hr
in
rain mn
in
humidity
%
barometer
mb
20260509213800 76 9 1.0 5.0 0.00 0.00 0.00 36 1017.5
20260509213706 76 333 1.0 7.0 0.00 0.00 0.00 37 1017.5
20260509213602 76 306 1.0 7.0 0.00 0.00 0.00 36 1017.6
20260509213506 76 340 2.0 7.0 0.00 0.00 0.00 36 1017.5
20260509213403 76 137 2.0 7.0 0.00 0.00 0.00 37 1017.5
20260509213318 76 98 2.0 7.0 0.00 0.00 0.00 35 1017.5
20260509213200 76 80 2.0 7.0 0.00 0.00 0.00 36 1017.5
20260509213104 76 59 2.0 7.0 0.00 0.00 0.00 37 1017.5
20260509213042 76 22 3.0 7.0 0.00 0.00 0.00 37 1017.5
20260509213031 76 0 4.0 7.0 0.00 0.00 0.00 37 1017.6
20260509212705 76 342 4.0 6.0 0.00 0.00 0.00 36 1017.6
20260509212601 76 47 3.0 6.0 0.00 0.00 0.00 38 1017.6
20260509212505 76 37 2.0 6.0 0.00 0.00 0.00 36 1017.6
20260509212401 76 37 2.0 6.0 0.00 0.00 0.00 38 1017.6
20260509212312 76 59 2.0 4.0 0.00 0.00 0.00 36 1017.6
20260509212202 76 24 2.0 4.0 0.00 0.00 0.00 38 1017.7
20260509212135 76 333 2.0 5.0 0.00 0.00 0.00 37 1017.7
20260509212123 76 352 2.0 6.0 0.00 0.00 0.00 38 1017.7
20260509211806 76 352 2.0 10.0 0.00 0.00 0.00 40 1017.7
20260509211704 75 9 1.0 10.0 0.00 0.00 0.00 39 1017.7
20260509211617 75 36 2.0 10.0 0.00 0.00 0.00 40 1017.7
20260509211505 75 5 3.0 10.0 0.00 0.00 0.00 38 1017.7
20260509211401 75 311 3.0 10.0 0.00 0.00 0.00 37 1017.7
20260509211313 75 292 3.0 10.0 0.00 0.00 0.00 37 1017.7
20260509211201 75 287 3.0 10.0 0.00 0.00 0.00 36 1017.8
20260509211103 76 17 5.0 10.0 0.00 0.00 0.00 38 1017.8
20260509211000 76 331 5.0 10.0 0.00 0.00 0.00 36 1017.8
20260509210904 76 117 3.0 10.0 0.00 0.00 0.00 37 1017.8
20260509210806 76 24 2.0 9.0 0.00 0.00 0.00 37 1017.9
20260509210704 76 341 3.0 7.0 0.00 0.00 0.00 36 1017.8
20260509210602 76 81 3.0 7.0 0.00 0.00 0.00 36 1017.9
20260509210507 76 54 2.0 7.0 0.00 0.00 0.00 38 1017.9
20260509210401 76 17 1.0 6.0 0.00 0.00 0.00 38 1017.9
20260509210307 76 113 2.0 6.0 0.00 0.00 0.00 39 1017.9
20260509210234 76 59 2.0 6.0 0.00 0.00 0.00 38 1018.0
20260509210220 76 176 2.0 6.0 0.00 0.00 0.00 39 1017.9
20260509210210 75 346 3.0 6.0 0.00 0.00 0.00 39 1018.0
20260509210157 75 105 3.0 6.0 0.00 0.00 0.00 39 1018.0
20260509205602 75 107 2.0 7.0 0.00 0.00 0.00 40 1017.9
20260509205507 75 32 2.0 10.0 0.00 0.00 0.00 39 1017.9
20260509205446 75 15 2.0 10.0 0.00 0.00 0.00 39 1017.9
20260509205435 75 36 3.0 10.0 0.00 0.00 0.00 39 1018.0
20260509205103 75 20 2.0 10.0 0.00 0.00 0.00 40 1018.0
20260509205001 75 36 2.0 10.0 0.00 0.00 0.00 38 1018.0
20260509204902 75 56 3.0 10.0 0.00 0.00 0.00 39 1018.0
20260509204802 75 30 4.0 10.0 0.00 0.00 0.00 38 1017.9
20260509204704 75 38 4.0 10.0 0.00 0.00 0.00 38 1018.0
20260509204601 75 93 3.0 10.0 0.00 0.00 0.00 38 1018.0
20260509204503 75 57 2.0 6.0 0.00 0.00 0.00 38 1018.1
20260509204403 75 48 2.0 6.0 0.00 0.00 0.00 39 1018.1
20260509204346 75 117 1.0 6.0 0.00 0.00 0.00 38 1018.1
20260509204322 75 302 2.0 6.0 0.00 0.00 0.00 38 1018.1
20260509204001 75 65 3.0 6.0 0.00 0.00 0.00 40 1018.1
20260509203903 75 24 3.0 7.0 0.00 0.00 0.00 39 1018.1
20260509203802 75 33 3.0 7.0 0.00 0.00 0.00 38 1018.1
20260509203702 75 30 3.0 7.0 0.00 0.00 0.00 39 1018.1
20260509203605 75 50 3.0 7.0 0.00 0.00 0.00 38 1018.2
20260509203502 75 5 1.0 7.0 0.00 0.00 0.00 39 1018.2
20260509203403 75 281 1.0 7.0 0.00 0.00 0.00 38 1018.2
20260509203302 75 51 2.0 7.0 0.00 0.00 0.00 39 1018.2
20260509203201 75 352 4.0 7.0 0.00 0.00 0.00 39 1018.2
20260509203103 75 36 3.0 7.0 0.00 0.00 0.00 40 1018.3
20260509203003 75 176 2.0 7.0 0.00 0.00 0.00 39 1018.2
20260509202902 75 164 3.0 7.0 0.00 0.00 0.00 40 1018.2
20260509202844 74 134 3.0 7.0 0.00 0.00 0.00 41 1018.3
20260509202821 74 47 3.0 7.0 0.00 0.00 0.00 40 1018.3
20260509202503 75 73 4.0 7.0 0.00 0.00 0.00 39 1018.3
20260509202433 75 82 4.0 7.0 0.00 0.00 0.00 39 1018.3
20260509202420 75 32 3.0 7.0 0.00 0.00 0.00 40 1018.3
20260509202356 75 31 2.0 6.0 0.00 0.00 0.00 39 1018.3
20260509202343 75 329 2.0 6.0 0.00 0.00 0.00 39 1018.3
20260509201800 75 96 2.0 6.0 0.00 0.00 0.00 40 1018.4
20260509201706 74 103 2.0 5.0 0.00 0.00 0.00 41 1018.4
20260509201600 74 137 2.0 6.0 0.00 0.00 0.00 42 1018.4
20260509201504 74 207 2.0 6.0 0.00 0.00 0.00 41 1018.4
20260509201401 74 158 2.0 6.0 0.00 0.00 0.00 41 1018.4
20260509201308 74 114 1.0 6.0 0.00 0.00 0.00 41 1018.4
20260509201201 74 63 2.0 6.0 0.00 0.00 0.00 41 1018.4
20260509201106 74 65 2.0 6.0 0.00 0.00 0.00 41 1018.5
20260509201001 74 5 3.0 6.0 0.00 0.00 0.00 40 1018.5
20260509200907 74 316 3.0 6.0 0.00 0.00 0.00 39 1018.6
20260509200801 75 49 3.0 6.0 0.00 0.00 0.00 40 1018.6
20260509200704 75 62 2.0 6.0 0.00 0.00 0.00 41 1018.6
20260509200601 75 105 2.0 5.0 0.00 0.00 0.00 42 1018.6
20260509200534 75 82 2.0 5.0 0.00 0.00 0.00 41 1018.6
20260509200518 75 94 2.0 5.0 0.00 0.00 0.00 41 1018.6
20260509200507 75 112 3.0 5.0 0.00 0.00 0.00 40 1018.6
20260509200223 75 69 1.0 5.0 0.00 0.00 0.00 41 1018.6
20260509195903 74 338 1.0 7.0 0.00 0.00 0.00 42 1018.6
20260509195802 74 98 1.0 7.0 0.00 0.00 0.00 42 1018.6
20260509195703 74 287 1.0 7.0 0.00 0.00 0.00 42 1018.6
20260509195601 74 260 2.0 8.0 0.00 0.00 0.00 42 1018.7
20260509195535 74 169 2.0 8.0 0.00 0.00 0.00 42 1018.7
20260509195521 74 173 2.0 8.0 0.00 0.00 0.00 42 1018.7
20260509195510 74 69 2.0 8.0 0.00 0.00 0.00 42 1018.7
20260509195444 74 180 3.0 8.0 0.00 0.00 0.00 43 1018.7
20260509195434 74 134 3.0 8.0 0.00 0.00 0.00 42 1018.7
20260509194943 74 188 4.0 8.0 0.00 0.00 0.00 42 1018.7
20260509194920 74 78 2.0 8.0 0.00 0.00 0.00 42 1018.7
20260509194906 74 155 3.0 8.0 0.00 0.00 0.00 42 1018.7
20260509194855 74 5 3.0 8.0 0.00 0.00 0.00 42 1018.7
20260509194841 74 105 2.0 8.0 0.00 0.00 0.00 42 1018.7
20260509194830 74 90 2.0 7.0 0.00 0.00 0.00 44 1018.7
20260509194806 74 71 2.0 7.0 0.00 0.00 0.00 43 1018.8
20260509194505 73 0 1.0 7.0 0.00 0.00 0.00 44 1018.7
20260509194454 73 5 1.0 7.0 0.00 0.00 0.00 44 1018.7
20260509194441 73 198 1.0 7.0 0.00 0.00 0.00 44 1018.7
20260509194420 73 229 2.0 7.0 0.00 0.00 0.00 44 1018.8
20260509193927 73 59 4.0 8.0 0.00 0.00 0.00 43 1018.8
20260509193916 73 84 4.0 8.0 0.00 0.00 0.00 43 1018.8
20260509193416 73 106 3.0 8.0 0.00 0.00 0.00 44 1018.8
20260509192638 73 174 2.0 8.0 0.00 0.00 0.00 44 1018.9
20260509192624 73 56 3.0 8.0 0.00 0.00 0.00 44 1018.9
20260509192334 73 61 2.0 8.0 0.00 0.00 0.00 44 1019.0
20260509192310 73 88 3.0 8.0 0.00 0.00 0.00 44 1019.0
20260509192300 73 30 4.0 8.0 0.00 0.00 0.00 43 1018.9
20260509192246 73 178 3.0 8.0 0.00 0.00 0.00 42 1018.9
20260509192235 73 117 4.0 8.0 0.00 0.00 0.00 43 1018.9
20260509191733 73 68 3.0 9.0 0.00 0.00 0.00 44 1018.9
20260509191401 73 57 2.0 9.0 0.00 0.00 0.00 45 1018.9
20260509191301 73 145 2.0 9.0 0.00 0.00 0.00 46 1019.0
20260509191203 73 92 2.0 9.0 0.00 0.00 0.00 45 1019.0
20260509191102 72 98 2.0 9.0 0.00 0.00 0.00 46 1019.0
20260509191000 72 186 1.0 9.0 0.00 0.00 0.00 47 1019.0
20260509190928 72 42 3.0 9.0 0.00 0.00 0.00 45 1018.9
20260509190913 72 145 3.0 9.0 0.00 0.00 0.00 44 1019.0
20260509190849 72 151 3.0 9.0 0.00 0.00 0.00 44 1019.0
20260509190617 72 142 3.0 6.0 0.00 0.00 0.00 45 1019.1
20260509190257 72 59 2.0 6.0 0.00 0.00 0.00 46 1019.1
20260509190223 72 48 2.0 6.0 0.00 0.00 0.00 47 1019.1
20260509190212 71 136 2.0 6.0 0.00 0.00 0.00 47 1019.1
20260509185901 71 146 4.0 7.0 0.00 0.00 0.00 46 1019.1
20260509185845 71 5 4.0 8.0 0.00 0.00 0.00 47 1019.1
20260509185823 71 352 2.0 8.0 0.00 0.00 0.00 46 1019.1
20260509185809 71 350 2.0 8.0 0.00 0.00 0.00 47 1019.2
20260509185758 71 5 2.0 8.0 0.00 0.00 0.00 47 1019.2
20260509185524 71 67 2.0 8.0 0.00 0.00 0.00 47 1019.3
20260509185500 71 108 3.0 8.0 0.00 0.00 0.00 46 1019.2
20260509185007 71 150 2.0 8.0 0.00 0.00 0.00 48 1019.3
20260509184645 71 119 4.0 8.0 0.00 0.00 0.00 47 1019.3
20260509184538 71 107 4.0 9.0 0.00 0.00 0.00 48 1019.3
20260509184453 71 80 2.0 9.0 0.00 0.00 0.00 47 1019.3
20260509184337 71 106 2.0 9.0 0.00 0.00 0.00 47 1019.3
20260509184256 71 36 3.0 9.0 0.00 0.00 0.00 45 1019.3
20260509184228 71 352 3.0 9.0 0.00 0.00 0.00 45 1019.3
20260509184217 71 30 2.0 9.0 0.00 0.00 0.00 46 1019.3
20260509184203 71 11 3.0 9.0 0.00 0.00 0.00 47 1019.4
20260509184152 71 0 4.0 9.0 0.00 0.00 0.00 47 1019.4
20260509183909 71 97 4.0 9.0 0.00 0.00 0.00 46 1019.5
20260509183857 71 73 3.0 8.0 0.00 0.00 0.00 48 1019.5
20260509183623 71 44 3.0 8.0 0.00 0.00 0.00 47 1019.5
20260509183030 71 96 3.0 8.0 0.00 0.00 0.00 47 1019.5
20260509182931 71 79 4.0 8.0 0.00 0.00 0.00 46 1019.5
20260509182830 71 78 2.0 8.0 0.00 0.00 0.00 48 1019.5
20260509182730 71 39 2.0 9.0 0.00 0.00 0.00 47 1019.5
20260509182630 71 70 3.0 9.0 0.00 0.00 0.00 47 1019.5
20260509182529 70 94 3.0 9.0 0.00 0.00 0.00 47 1019.5
20260509182432 70 76 3.0 9.0 0.00 0.00 0.00 48 1019.5
20260509182328 70 55 4.0 9.0 0.00 0.00 0.00 48 1019.5
20260509182231 70 67 3.0 9.0 0.00 0.00 0.00 48 1019.5
20260509182131 70 53 2.0 9.0 0.00 0.00 0.00 49 1019.5
20260509182029 70 325 3.0 9.0 0.00 0.00 0.00 47 1019.5
20260509182001 70 60 4.0 9.0 0.00 0.00 0.00 48 1019.5
20260509181951 70 61 4.0 9.0 0.00 0.00 0.00 48 1019.5
20260509181629 70 79 3.0 8.0 0.00 0.00 0.00 48 1019.5
20260509181529 70 5 3.0 8.0 0.00 0.00 0.00 48 1019.5
20260509181433 70 9 2.0 8.0 0.00 0.00 0.00 48 1019.5
20260509181329 70 352 2.0 7.0 0.00 0.00 0.00 47 1019.6
20260509181312 70 270 2.0 7.0 0.00 0.00 0.00 47 1019.6
20260509181248 70 35 2.0 7.0 0.00 0.00 0.00 47 1019.6
20260509180929 70 10 3.0 7.0 0.00 0.00 0.00 47 1019.7
20260509180830 70 279 3.0 7.0 0.00 0.00 0.00 45 1019.7
20260509180730 70 268 3.0 4.0 0.00 0.00 0.00 47 1019.7
20260509180630 70 230 2.0 4.0 0.00 0.00 0.00 47 1019.7
20260509180531 70 315 2.0 4.0 0.00 0.00 0.00 47 1019.7
20260509180432 70 305 2.0 4.0 0.00 0.00 0.00 48 1019.7
20260509180331 70 340 2.0 4.0 0.00 0.00 0.00 48 1019.7
20260509180229 70 336 2.0 4.0 0.00 0.00 0.00 47 1019.7
20260509180130 70 298 2.0 4.0 0.00 0.00 0.00 49 1019.7
20260509180029 70 323 2.0 4.0 0.00 0.00 0.00 48 1019.7
20260509175929 69 334 2.0 6.0 0.00 0.00 0.00 49 1019.7
20260509175829 69 348 2.0 6.0 0.00 0.00 0.00 47 1019.7
20260509175732 69 18 2.0 6.0 0.00 0.00 0.00 48 1019.7
20260509175702 69 346 2.0 6.0 0.00 0.00 0.00 47 1019.8
20260509175650 69 122 1.0 6.0 0.00 0.00 0.00 47 1019.8
20260509175331 69 342 3.0 6.0 0.00 0.00 0.00 48 1019.8
20260509175314 69 13 3.0 6.0 0.00 0.00 0.00 48 1019.7
20260509175250 69 66 3.0 6.0 0.00 0.00 0.00 49 1019.8
20260509174932 69 346 2.0 5.0 0.00 0.00 0.00 50 1019.7
20260509174828 69 262 2.0 5.0 0.00 0.00 0.00 47 1019.8
20260509174728 69 274 2.0 5.0 0.00 0.00 0.00 50 1019.8
20260509174639 69 279 2.0 5.0 0.00 0.00 0.00 48 1019.8
20260509174531 69 29 2.0 5.0 0.00 0.00 0.00 49 1019.8
20260509174430 69 336 2.0 5.0 0.00 0.00 0.00 49 1019.8
20260509174331 69 288 3.0 5.0 0.00 0.00 0.00 48 1019.8
20260509174228 69 287 3.0 5.0 0.00 0.00 0.00 49 1019.8
20260509174130 69 321 3.0 5.0 0.00 0.00 0.00 49 1019.8
20260509174027 69 279 2.0 5.0 0.00 0.00 0.00 49 1019.8
20260509173926 70 285 2.0 5.0 0.00 0.00 0.00 50 1019.8
20260509173825 70 289 2.0 5.0 0.00 0.00 0.00 50 1019.8
20260509173725 70 322 2.0 5.0 0.00 0.00 0.00 49 1019.9
20260509173622 70 333 2.0 5.0 0.00 0.00 0.00 50 1019.9
20260509173553 70 352 2.0 5.0 0.00 0.00 0.00 49 1019.8
20260509173538 70 14 3.0 5.0 0.00 0.00 0.00 49 1019.9
20260509173217 70 347 1.0 5.0 0.00 0.00 0.00 49 1019.9
20260509173146 70 120 2.0 3.0 0.00 0.00 0.00 48 1019.9
20260509173135 70 65 2.0 3.0 0.00 0.00 0.00 50 1019.9
20260509172856 69 99 2.0 4.0 0.00 0.00 0.00 48 1019.9
20260509172847 69 73 2.0 4.0 0.00 0.00 0.00 48 1019.9
20260509172512 69 30 1.0 4.0 0.00 0.00 0.00 49 1019.8
20260509172410 69 65 1.0 4.0 0.00 0.00 0.00 49 1019.8
20260509172310 69 343 1.0 4.0 0.00 0.00 0.00 49 1019.8
20260509172209 68 32 1.0 4.0 0.00 0.00 0.00 50 1019.8
20260509172108 68 125 1.0 4.0 0.00 0.00 0.00 51 1019.9
20260509172038 68 115 2.0 4.0 0.00 0.00 0.00 50 1019.9
20260509172026 68 213 2.0 4.0 0.00 0.00 0.00 50 1019.9
20260509171703 68 63 2.0 6.0 0.00 0.00 0.00 51 1019.8
20260509171605 68 104 2.0 6.0 0.00 0.00 0.00 52 1019.9
20260509171502 67 145 2.0 6.0 0.00 0.00 0.00 52 1019.9
20260509171432 67 314 2.0 6.0 0.00 0.00 0.00 51 1019.8
20260509171417 67 302 3.0 6.0 0.00 0.00 0.00 52 1019.8
20260509171406 67 38 3.0 6.0 0.00 0.00 0.00 51 1019.9
20260509171002 67 61 3.0 6.0 0.00 0.00 0.00 51 1019.9
20260509170901 67 86 2.0 6.0 0.00 0.00 0.00 52 1020.0
20260509170802 67 93 3.0 6.0 0.00 0.00 0.00 53 1020.0
20260509170701 67 42 3.0 6.0 0.00 0.00 0.00 52 1020.1
20260509170602 67 43 2.0 6.0 0.00 0.00 0.00 51 1020.0
20260509170502 67 76 2.0 5.0 0.00 0.00 0.00 53 1020.0
20260509170435 67 123 2.0 5.0 0.00 0.00 0.00 53 1020.0
20260509170423 67 76 2.0 5.0 0.00 0.00 0.00 53 1019.9
20260509170059 67 342 2.0 7.0 0.00 0.00 0.00 52 1019.9
20260509170032 67 249 2.0 7.0 0.00 0.00 0.00 53 1020.0
20260509170019 67 347 2.0 7.0 0.00 0.00 0.00 53 1019.9
20260509165652 67 273 3.0 7.0 0.00 0.00 0.00 53 1019.9
20260509165551 67 346 3.0 7.0 0.00 0.00 0.00 53 1019.9
20260509165452 67 329 4.0 7.0 0.00 0.00 0.00 53 1019.9
20260509165349 67 336 3.0 7.0 0.00 0.00 0.00 53 1019.9
20260509165252 67 76 2.0 5.0 0.00 0.00 0.00 52 1019.9
20260509165148 67 23 3.0 5.0 0.00 0.00 0.00 52 1019.9
20260509165050 67 352 2.0 5.0 0.00 0.00 0.00 52 1020.0
20260509164946 67 324 2.0 4.0 0.00 0.00 0.00 53 1020.0
20260509164845 67 328 2.0 4.0 0.00 0.00 0.00 53 1020.0
20260509164826 67 0 2.0 4.0 0.00 0.00 0.00 54 1020.0
20260509164815 67 319 2.0 5.0 0.00 0.00 0.00 53 1020.0
20260509164442 67 340 2.0 5.0 0.00 0.00 0.00 54 1019.9
20260509164342 67 13 2.0 5.0 0.00 0.00 0.00 55 1019.9
20260509164309 67 5 2.0 5.0 0.00 0.00 0.00 53 1019.9
20260509164255 67 69 1.0 5.0 0.00 0.00 0.00 54 1020.0
20260509164232 67 14 1.0 5.0 0.00 0.00 0.00 54 1020.0
20260509164221 67 142 2.0 5.0 0.00 0.00 0.00 54 1019.9
20260509164139 67 98 2.0 5.0 0.00 0.00 0.00 54 1020.0
20260509163909 66 67 0.0 3.0 0.00 0.00 0.00 55 1020.1
20260509163843 66 279 1.0 4.0 0.00 0.00 0.00 54 1020.0
20260509163350 66 89 1.0 4.0 0.00 0.00 0.00 55 1020.0
20260509163338 66 54 1.0 5.0 0.00 0.00 0.00 56 1020.0
20260509163052 66 267 2.0 5.0 0.00 0.00 0.00 55 1020.0
20260509162732 66 296 2.0 5.0 0.00 0.00 0.00 55 1020.0
20260509162630 66 349 2.0 5.0 0.00 0.00 0.00 56 1020.1
20260509162530 66 60 2.0 5.0 0.00 0.00 0.00 56 1020.1
20260509162432 66 59 3.0 5.0 0.00 0.00 0.00 55 1020.1
20260509162330 66 15 3.0 5.0 0.00 0.00 0.00 55 1020.1
20260509162229 66 38 2.0 5.0 0.00 0.00 0.00 56 1020.1
20260509162131 66 86 2.0 5.0 0.00 0.00 0.00 55 1020.1
20260509162029 66 139 2.0 4.0 0.00 0.00 0.00 55 1020.1
20260509161929 65 22 1.0 4.0 0.00 0.00 0.00 56 1020.1
20260509161829 65 144 1.0 4.0 0.00 0.00 0.00 56 1020.2
20260509161728 65 348 2.0 4.0 0.00 0.00 0.00 56 1020.2
20260509161629 65 103 2.0 4.0 0.00 0.00 0.00 57 1020.2
20260509161529 65 78 2.0 4.0 0.00 0.00 0.00 57 1020.1
20260509161431 65 10 2.0 4.0 0.00 0.00 0.00 56 1020.1
20260509161312 65 295 2.0 4.0 0.00 0.00 0.00 57 1020.1
20260509161215 65 14 2.0 4.0 0.00 0.00 0.00 57 1020.2
20260509161112 65 51 3.0 4.0 0.00 0.00 0.00 57 1020.0
20260509161010 65 81 3.0 4.0 0.00 0.00 0.00 57 1020.1
20260509160909 65 93 2.0 4.0 0.00 0.00 0.00 57 1020.1
20260509160809 65 5 1.0 4.0 0.00 0.00 0.00 57 1020.1
20260509160750 65 317 1.0 4.0 0.00 0.00 0.00 57 1020.1
20260509160740 65 138 2.0 4.0 0.00 0.00 0.00 57 1020.1
20260509160407 65 24 2.0 4.0 0.00 0.00 0.00 58 1020.1
20260509160306 65 70 2.0 4.0 0.00 0.00 0.00 57 1020.1
20260509160206 65 17 2.0 4.0 0.00 0.00 0.00 58 1020.1
20260509160138 64 5 2.0 3.0 0.00 0.00 0.00 59 1020.2
20260509160111 64 61 1.0 3.0 0.00 0.00 0.00 59 1020.2
20260509160059 64 82 1.0 3.0 0.00 0.00 0.00 58 1020.2
20260509160047 64 340 2.0 3.0 0.00 0.00 0.00 59 1020.2
20260509155501 64 349 1.0 3.0 0.00 0.00 0.00 59 1020.2
20260509155403 64 5 1.0 3.0 0.00 0.00 0.00 59 1020.2
20260509155339 64 44 2.0 3.0 0.00 0.00 0.00 58 1020.2
20260509155328 64 45 1.0 3.0 0.00 0.00 0.00 59 1020.2
20260509155317 64 44 1.0 3.0 0.00 0.00 0.00 59 1020.2
20260509155033 64 24 1.0 3.0 0.00 0.00 0.00 60 1020.2
20260509154800 63 10 2.0 3.0 0.00 0.00 0.00 59 1020.2
20260509154749 63 51 2.0 3.0 0.00 0.00 0.00 59 1020.3
20260509154725 63 45 1.0 3.0 0.00 0.00 0.00 60 1020.3
20260509154714 63 5 1.0 3.0 0.00 0.00 0.00 61 1020.3
20260509154703 63 113 2.0 4.0 0.00 0.00 0.00 59 1020.3
20260509154652 63 61 2.0 4.0 0.00 0.00 0.00 60 1020.4
20260509154148 63 86 1.0 4.0 0.00 0.00 0.00 60 1020.5
20260509154105 63 51 2.0 4.0 0.00 0.00 0.00 60 1020.4
20260509154053 63 5 2.0 4.0 0.00 0.00 0.00 61 1020.4
20260509153812 63 58 2.0 4.0 0.00 0.00 0.00 62 1020.4
20260509153758 63 55 1.0 4.0 0.00 0.00 0.00 62 1020.4
20260509152947 63 68 1.0 4.0 0.00 0.00 0.00 62 1020.4
20260509152848 62 42 1.0 4.0 0.00 0.00 0.00 62 1020.5
20260509152747 62 0 1.0 4.0 0.00 0.00 0.00 62 1020.5
20260509152648 62 20 1.0 4.0 0.00 0.00 0.00 62 1020.5
20260509152553 62 0 2.0 4.0 0.00 0.00 0.00 62 1020.4
20260509152446 62 348 2.0 4.0 0.00 0.00 0.00 61 1020.4
20260509152344 63 351 2.0 4.0 0.00 0.00 0.00 61 1020.4
20260509152248 63 0 3.0 4.0 0.00 0.00 0.00 61 1020.4
20260509152143 63 19 2.0 4.0 0.00 0.00 0.00 61 1020.3
20260509152050 63 14 1.0 4.0 0.00 0.00 0.00 62 1020.4
20260509151941 63 52 2.0 3.0 0.00 0.00 0.00 61 1020.3
20260509151840 62 52 1.0 3.0 0.00 0.00 0.00 62 1020.3
20260509151739 62 62 1.0 3.0 0.00 0.00 0.00 61 1020.3
20260509151641 62 48 1.0 3.0 0.00 0.00 0.00 61 1020.3
20260509151551 62 352 1.0 3.0 0.00 0.00 0.00 63 1020.3
20260509151439 62 5 1.0 3.0 0.00 0.00 0.00 63 1020.3
20260509151333 62 5 1.0 3.0 0.00 0.00 0.00 64 1020.4
20260509151232 62 5 1.0 3.0 0.00 0.00 0.00 63 1020.3
20260509151132 62 350 0.0 3.0 0.00 0.00 0.00 63 1020.3
20260509151031 62 77 1.0 3.0 0.00 0.00 0.00 63 1020.3
20260509150931 62 82 2.0 3.0 0.00 0.00 0.00 63 1020.3
20260509150832 62 87 2.0 3.0 0.00 0.00 0.00 63 1020.3
20260509150811 61 57 2.0 3.0 0.00 0.00 0.00 63 1020.2
20260509150801 61 88 1.0 3.0 0.00 0.00 0.00 64 1020.2
20260509150426 61 37 1.0 3.0 0.00 0.00 0.00 63 1020.2
20260509150325 61 13 1.0 3.0 0.00 0.00 0.00 63 1020.2
20260509150229 61 73 1.0 3.0 0.00 0.00 0.00 63 1020.1
20260509150127 61 46 2.0 3.0 0.00 0.00 0.00 63 1020.1
20260509150023 61 5 2.0 3.0 0.00 0.00 0.00 63 1020.1
20260509145924 61 348 2.0 3.0 0.00 0.00 0.00 63 1020.1
20260509145822 61 78 2.0 3.0 0.00 0.00 0.00 62 1020.1
20260509145804 61 73 2.0 3.0 0.00 0.00 0.00 62 1020.2
20260509145753 61 84 2.0 3.0 0.00 0.00 0.00 62 1020.1
20260509145728 61 94 2.0 3.0 0.00 0.00 0.00 62 1020.1
20260509145714 61 76 2.0 3.0 0.00 0.00 0.00 62 1020.1
20260509145220 61 24 1.0 2.0 0.00 0.00 0.00 63 1020.1
20260509145158 61 20 1.0 2.0 0.00 0.00 0.00 63 1020.1
20260509145144 60 21 1.0 2.0 0.00 0.00 0.00 64 1020.1
20260509144605 60 88 1.0 3.0 0.00 0.00 0.00 64 1020.1
20260509144506 60 78 0.0 3.0 0.00 0.00 0.00 64 1020.1
20260509144403 60 78 0.0 3.0 0.00 0.00 0.00 65 1020.1
20260509144333 60 78 0.0 3.0 0.00 0.00 0.00 65 1020.1
20260509144323 60 78 0.0 3.0 0.00 0.00 0.00 65 1020.1
20260509144003 60 78 2.0 4.0 0.00 0.00 0.00 65 1020.1
20260509143907 60 57 2.0 4.0 0.00 0.00 0.00 66 1020.1
20260509143801 59 102 1.0 4.0 0.00 0.00 0.00 65 1020.0
20260509143701 59 87 1.0 4.0 0.00 0.00 0.00 66 1020.0
20260509143601 59 99 1.0 4.0 0.00 0.00 0.00 65 1020.0
20260509143501 59 101 2.0 4.0 0.00 0.00 0.00 66 1020.0
20260509143403 59 101 2.0 4.0 0.00 0.00 0.00 66 1020.0
20260509143304 59 74 2.0 4.0 0.00 0.00 0.00 66 1020.0
20260509143201 59 46 2.0 4.0 0.00 0.00 0.00 66 1020.0
20260509143101 59 77 1.0 4.0 0.00 0.00 0.00 66 1020.0
20260509143000 59 64 1.0 3.0 0.00 0.00 0.00 67 1020.1
20260509142900 59 87 1.0 2.0 0.00 0.00 0.00 66 1020.1
20260509142802 59 80 1.0 4.0 0.00 0.00 0.00 67 1020.1
20260509142744 59 71 1.0 4.0 0.00 0.00 0.00 67 1020.0
20260509142734 59 71 1.0 4.0 0.00 0.00 0.00 67 1020.0
20260509142427 59 88 0.0 4.0 0.00 0.00 0.00 67 1020.0
20260509142414 59 78 0.0 4.0 0.00 0.00 0.00 66 1019.9
20260509142038 59 80 2.0 4.0 0.00 0.00 0.00 67 1020.0
20260509141932 59 92 2.0 4.0 0.00 0.00 0.00 67 1020.0
20260509141830 59 112 2.0 4.0 0.00 0.00 0.00 66 1020.0
20260509141731 59 46 1.0 3.0 0.00 0.00 0.00 67 1020.0
20260509141631 59 72 2.0 3.0 0.00 0.00 0.00 67 1020.0
20260509141616 59 65 2.0 3.0 0.00 0.00 0.00 67 1020.0
20260509141552 59 79 1.0 3.0 0.00 0.00 0.00 67 1020.0
20260509141229 58 74 0.0 2.0 0.00 0.00 0.00 66 1019.9
20260509141130 58 144 0.0 2.0 0.00 0.00 0.00 67 1019.9
20260509141029 58 144 0.0 3.0 0.00 0.00 0.00 66 1019.8
20260509140930 58 144 0.0 3.0 0.00 0.00 0.00 67 1019.8
20260509140845 58 144 0.0 3.0 0.00 0.00 0.00 67 1019.9
20260509140733 58 144 1.0 3.0 0.00 0.00 0.00 67 1019.8
20260509140630 58 144 1.0 3.0 0.00 0.00 0.00 67 1019.9
20260509140528 58 143 1.0 3.0 0.00 0.00 0.00 67 1019.9
20260509140428 58 161 1.0 3.0 0.00 0.00 0.00 67 1019.9
20260509140326 57 91 2.0 3.0 0.00 0.00 0.00 67 1019.9
20260509140258 57 93 1.0 3.0 0.00 0.00 0.00 68 1019.9
20260509140243 57 94 0.0 3.0 0.00 0.00 0.00 68 1019.8
20260509135922 57 131 0.0 0.0 0.00 0.00 0.00 69 1019.9
20260509135824 57 131 0.0 0.0 0.00 0.00 0.00 69 1019.8
20260509135719 56 131 0.0 0.0 0.00 0.00 0.00 70 1019.9
20260509135617 56 131 0.0 0.0 0.00 0.00 0.00 70 1019.8
20260509135518 56 131 0.0 0.0 0.00 0.00 0.00 70 1019.8
20260509135403 56 131 0.0 0.0 0.00 0.00 0.00 69 1019.8
20260509135306 56 131 0.0 0.0 0.00 0.00 0.00 69 1019.8
20260509135201 56 131 0.0 0.0 0.00 0.00 0.00 69 1019.8
20260509135101 56 131 0.0 1.0 0.00 0.00 0.00 69 1019.7
20260509135002 55 131 0.0 2.0 0.00 0.00 0.00 70 1019.7
20260509134901 55 131 0.0 2.0 0.00 0.00 0.00 70 1019.7
20260509134805 55 131 0.0 2.0 0.00 0.00 0.00 71 1019.7
20260509134701 55 131 0.0 2.0 0.00 0.00 0.00 71 1019.7
20260509134601 55 131 0.0 2.0 0.00 0.00 0.00 71 1019.7
20260509134533 55 131 0.0 2.0 0.00 0.00 0.00 71 1019.6
20260509134522 55 131 0.0 3.0 0.00 0.00 0.00 71 1019.7
20260509134202 55 131 0.0 3.0 0.00 0.00 0.00 71 1019.7
20260509134101 55 130 0.0 3.0 0.00 0.00 0.00 71 1019.7
20260509134005 55 113 0.0 3.0 0.00 0.00 0.00 72 1019.7
20260509133902 55 113 0.0 3.0 0.00 0.00 0.00 72 1019.8
20260509133841 55 113 0.0 3.0 0.00 0.00 0.00 72 1019.8
20260509133829 54 113 1.0 3.0 0.00 0.00 0.00 72 1019.7
20260509133819 54 114 1.0 3.0 0.00 0.00 0.00 72 1019.7
20260509133504 54 152 0.0 3.0 0.00 0.00 0.00 72 1019.7
20260509133450 54 152 1.0 3.0 0.00 0.00 0.00 72 1019.7
20260509133220 54 198 0.0 3.0 0.00 0.00 0.00 73 1019.7
20260509133157 54 113 0.0 0.0 0.00 0.00 0.00 73 1019.7
20260509132930 54 113 0.0 0.0 0.00 0.00 0.00 73 1019.7
20260509132918 54 113 0.0 0.0 0.00 0.00 0.00 73 1019.7
20260509132333 54 113 0.0 0.0 0.00 0.00 0.00 73 1019.6
20260509132230 53 113 0.0 0.0 0.00 0.00 0.00 73 1019.7
20260509132130 53 113 0.0 0.0 0.00 0.00 0.00 73 1019.6
20260509132029 53 113 0.0 0.0 0.00 0.00 0.00 73 1019.6
20260509131948 53 113 0.0 0.0 0.00 0.00 0.00 73 1019.6
20260509131937 53 113 0.0 0.0 0.00 0.00 0.00 73 1019.6
20260509131927 54 113 0.0 0.0 0.00 0.00 0.00 73 1019.6
20260509131916 54 113 0.0 0.0 0.00 0.00 0.00 73 1019.5
20260509131333 54 113 0.0 0.0 0.00 0.00 0.00 73 1019.6
20260509131228 54 113 0.0 0.0 0.00 0.00 0.00 72 1019.5
20260509131130 54 113 0.0 2.0 0.00 0.00 0.00 73 1019.5
20260509131030 54 113 0.0 2.0 0.00 0.00 0.00 72 1019.6
20260509130932 54 113 0.0 2.0 0.00 0.00 0.00 73 1019.5
20260509130829 54 113 0.0 2.0 0.00 0.00 0.00 73 1019.5
20260509130811 54 113 0.0 2.0 0.00 0.00 0.00 73 1019.5
20260509130800 54 113 0.0 2.0 0.00 0.00 0.00 72 1019.5
20260509130403 54 113 0.0 2.0 0.00 0.00 0.00 73 1019.6
20260509130301 54 113 0.0 2.0 0.00 0.00 0.00 72 1019.5
20260509130203 54 113 0.0 2.0 0.00 0.00 0.00 72 1019.5
20260509130004 54 136 0.0 2.0 0.00 0.00 0.00 72 1019.4
20260509125902 54 136 0.0 2.0 0.00 0.00 0.00 72 1019.4
20260509125804 54 136 0.0 2.0 0.00 0.00 0.00 72 1019.4
20260509125701 54 136 0.0 2.0 0.00 0.00 0.00 72 1019.4
20260509125605 54 136 0.0 3.0 0.00 0.00 0.00 72 1019.4
20260509125503 54 158 0.0 3.0 0.00 0.00 0.00 72 1019.4
20260509125405 54 158 0.0 3.0 0.00 0.00 0.00 72 1019.4
20260509125301 54 178 0.0 4.0 0.00 0.00 0.00 72 1019.4
20260509125205 54 211 0.0 4.0 0.00 0.00 0.00 72 1019.3
20260509125134 54 211 0.0 4.0 0.00 0.00 0.00 72 1019.3
20260509125123 54 204 0.0 4.0 0.00 0.00 0.00 72 1019.3
20260509124751 54 250 0.0 4.0 0.00 0.00 0.00 72 1019.3
20260509124651 54 242 0.0 4.0 0.00 0.00 0.00 72 1019.2
20260509124618 54 262 1.0 4.0 0.00 0.00 0.00 72 1019.3
20260509124606 54 254 1.0 4.0 0.00 0.00 0.00 72 1019.3
20260509124540 54 253 0.0 4.0 0.00 0.00 0.00 72 1019.3
20260509124528 54 261 0.0 2.0 0.00 0.00 0.00 72 1019.3
20260509124517 54 261 1.0 2.0 0.00 0.00 0.00 72 1019.3
20260509124013 54 280 1.0 4.0 0.00 0.00 0.00 72 1019.3
20260509123958 54 269 1.0 4.0 0.00 0.00 0.00 72 1019.3
20260509123949 54 262 0.0 4.0 0.00 0.00 0.00 72 1019.3
20260509123329 54 187 0.0 4.0 0.00 0.00 0.00 72 1019.3
20260509123229 54 190 2.0 4.0 0.00 0.00 0.00 72 1019.3
20260509123129 54 190 2.0 4.0 0.00 0.00 0.00 72 1019.2
20260509123030 54 194 2.0 4.0 0.00 0.00 0.00 72 1019.3
20260509122929 54 186 1.0 4.0 0.00 0.00 0.00 72 1019.3
20260509122829 54 210 1.0 2.0 0.00 0.00 0.00 72 1019.3
20260509122731 54 269 1.0 2.0 0.00 0.00 0.00 72 1019.3
20260509122629 54 249 1.0 3.0 0.00 0.00 0.00 72 1019.2
20260509122529 54 211 0.0 3.0 0.00 0.00 0.00 71 1019.3
20260509122429 54 275 0.0 3.0 0.00 0.00 0.00 71 1019.2
20260509122330 54 234 0.0 3.0 0.00 0.00 0.00 71 1019.2
20260509122230 54 234 0.0 3.0 0.00 0.00 0.00 71 1019.2
20260509122129 54 204 0.0 3.0 0.00 0.00 0.00 71 1019.2
20260509122031 54 204 0.0 3.0 0.00 0.00 0.00 71 1019.2
20260509121930 54 204 0.0 3.0 0.00 0.00 0.00 71 1019.3
20260509121830 54 204 1.0 5.0 0.00 0.00 0.00 71 1019.3
20260509121730 54 204 1.0 5.0 0.00 0.00 0.00 71 1019.3
20260509121652 54 192 1.0 5.0 0.00 0.00 0.00 71 1019.3
20260509121638 54 235 1.0 5.0 0.00 0.00 0.00 71 1019.2
20260509121617 54 188 1.0 5.0 0.00 0.00 0.00 71 1019.2
20260509121601 54 214 1.0 5.0 0.00 0.00 0.00 71 1019.2
20260509121550 54 179 0.0 5.0 0.00 0.00 0.00 71 1019.2
20260509121320 54 238 1.0 5.0 0.00 0.00 0.00 71 1019.1
20260509121255 54 200 1.0 5.0 0.00 0.00 0.00 71 1019.1
20260509121025 54 191 0.0 2.0 0.00 0.00 0.00 71 1019.1
20260509121016 54 191 0.0 2.0 0.00 0.00 0.00 71 1019.1
20260509121003 54 176 1.0 2.0 0.00 0.00 0.00 71 1019.1
20260509120942 54 161 1.0 2.0 0.00 0.00 0.00 71 1019.1
20260509120709 54 237 1.0 2.0 0.00 0.00 0.00 71 1019.1
20260509120407 54 235 0.0 4.0 0.00 0.00 0.00 71 1019.2
20260509120345 54 226 0.0 4.0 0.00 0.00 0.00 71 1019.2
20260509120335 54 226 0.0 4.0 0.00 0.00 0.00 71 1019.2
20260509115307 55 182 2.0 4.0 0.00 0.00 0.00 70 1019.1
20260509115236 55 182 2.0 4.0 0.00 0.00 0.00 70 1019.2
20260509115222 55 206 2.0 4.0 0.00 0.00 0.00 70 1019.1
20260509115211 55 178 2.0 4.0 0.00 0.00 0.00 70 1019.1
20260509114924 55 188 0.0 4.0 0.00 0.00 0.00 70 1019.1
20260509114604 55 182 1.0 7.0 0.00 0.00 0.00 70 1019.1
20260509114501 55 182 1.0 7.0 0.00 0.00 0.00 70 1019.1
20260509114404 55 273 1.0 7.0 0.00 0.00 0.00 70 1019.1
20260509114303 55 245 1.0 7.0 0.00 0.00 0.00 70 1019.1
20260509114234 55 276 1.0 7.0 0.00 0.00 0.00 70 1019.1
20260509114219 55 296 1.0 7.0 0.00 0.00 0.00 70 1019.2
20260509113901 54 249 2.0 7.0 0.00 0.00 0.00 70 1019.2
20260509113802 54 251 2.0 7.0 0.00 0.00 0.00 70 1019.2
20260509113733 54 175 1.0 7.0 0.00 0.00 0.00 70 1019.2
20260509113722 54 161 0.0 4.0 0.00 0.00 0.00 71 1019.2
20260509113404 54 221 1.0 4.0 0.00 0.00 0.00 70 1019.2
20260509113338 54 223 1.0 4.0 0.00 0.00 0.00 71 1019.2
20260509113322 54 242 0.0 4.0 0.00 0.00 0.00 71 1019.2
20260509113311 54 182 0.0 3.0 0.00 0.00 0.00 71 1019.2
20260509113301 54 250 0.0 3.0 0.00 0.00 0.00 71 1019.2
20260509113239 54 241 0.0 3.0 0.00 0.00 0.00 71 1019.2
20260509113231 54 241 1.0 3.0 0.00 0.00 0.00 71 1019.2
20260509112433 54 253 0.0 3.0 0.00 0.00 0.00 71 1019.1
20260509112417 54 253 1.0 6.0 0.00 0.00 0.00 71 1019.1
20260509112408 54 253 1.0 6.0 0.00 0.00 0.00 71 1019.1
20260509112354 54 250 1.0 6.0 0.00 0.00 0.00 71 1019.1
20260509111803 54 209 1.0 6.0 0.00 0.00 0.00 71 1019.2
20260509111702 54 254 1.0 6.0 0.00 0.00 0.00 71 1019.2
20260509111604 54 207 1.0 6.0 0.00 0.00 0.00 71 1019.2
20260509111502 54 224 2.0 6.0 0.00 0.00 0.00 71 1019.2
20260509111402 54 224 1.0 6.0 0.00 0.00 0.00 71 1019.2
20260509111301 54 255 1.0 4.0 0.00 0.00 0.00 71 1019.2
20260509111235 54 269 2.0 4.0 0.00 0.00 0.00 71 1019.2
20260509111225 54 161 1.0 4.0 0.00 0.00 0.00 70 1019.2
20260509110901 54 204 1.0 4.0 0.00 0.00 0.00 70 1019.2
20260509110803 54 167 0.0 4.0 0.00 0.00 0.00 70 1019.2
20260509110733 54 175 0.0 4.0 0.00 0.00 0.00 70 1019.2
20260509110720 54 225 0.0 0.0 0.00 0.00 0.00 70 1019.2
20260509110401 54 225 0.0 0.0 0.00 0.00 0.00 70 1019.2
20260509110307 54 225 0.0 0.0 0.00 0.00 0.00 70 1019.1
20260509110255 54 225 0.0 0.0 0.00 0.00 0.00 69 1019.1
20260509110244 54 225 0.0 2.0 0.00 0.00 0.00 69 1019.1
20260509105959 54 225 0.0 2.0 0.00 0.00 0.00 69 1019.1
20260509105950 54 225 0.0 2.0 0.00 0.00 0.00 69 1019.2
20260509105604 54 225 0.0 2.0 0.00 0.00 0.00 69 1019.2
20260509105502 55 225 0.0 2.0 0.00 0.00 0.00 69 1019.2
20260509105433 55 225 1.0 3.0 0.00 0.00 0.00 69 1019.2
20260509105421 55 225 1.0 3.0 0.00 0.00 0.00 69 1019.2
20260509105102 55 200 0.0 3.0 0.00 0.00 0.00 69 1019.1
20260509105001 55 200 0.0 3.0 0.00 0.00 0.00 69 1019.2
20260509104901 55 200 0.0 3.0 0.00 0.00 0.00 69 1019.1
20260509104801 55 200 0.0 3.0 0.00 0.00 0.00 69 1019.1
20260509104702 55 199 1.0 3.0 0.00 0.00 0.00 69 1019.2
20260509104600 55 252 2.0 3.0 0.00 0.00 0.00 69 1019.1
20260509104504 55 252 1.0 3.0 0.00 0.00 0.00 69 1019.1
20260509104413 55 210 1.0 3.0 0.00 0.00 0.00 69 1019.1
20260509104303 55 213 1.0 3.0 0.00 0.00 0.00 69 1019.1
20260509104202 54 214 1.0 3.0 0.00 0.00 0.00 69 1019.1
20260509104101 54 211 0.0 5.0 0.00 0.00 0.00 69 1019.1
20260509104000 54 182 0.0 5.0 0.00 0.00 0.00 70 1019.1
20260509103915 54 249 0.0 5.0 0.00 0.00 0.00 70 1019.0
20260509103801 54 234 0.0 5.0 0.00 0.00 0.00 70 1019.1
20260509103703 54 236 1.0 5.0 0.00 0.00 0.00 70 1019.0
20260509103609 54 200 1.0 5.0 0.00 0.00 0.00 70 1019.0
20260509103551 54 295 1.0 5.0 0.00 0.00 0.00 70 1019.0
20260509103537 54 216 2.0 5.0 0.00 0.00 0.00 70 1019.0
20260509103202 54 252 0.0 5.0 0.00 0.00 0.00 70 1019.1
20260509103103 54 210 0.0 3.0 0.00 0.00 0.00 69 1019.1
20260509103002 54 203 0.0 2.0 0.00 0.00 0.00 69 1019.1
20260509102911 54 195 0.0 2.0 0.00 0.00 0.00 69 1019.1
20260509102801 54 236 0.0 3.0 0.00 0.00 0.00 69 1019.1
20260509102702 54 231 0.0 3.0 0.00 0.00 0.00 69 1019.1
20260509102601 54 228 0.0 5.0 0.00 0.00 0.00 69 1019.0
20260509102500 54 175 1.0 5.0 0.00 0.00 0.00 69 1019.0
20260509102409 54 209 1.0 5.0 0.00 0.00 0.00 69 1019.0
20260509102322 54 186 1.0 5.0 0.00 0.00 0.00 69 1019.0
20260509102311 54 190 1.0 5.0 0.00 0.00 0.00 69 1019.0
20260509101948 54 184 1.0 5.0 0.00 0.00 0.00 69 1019.0
20260509101849 54 170 2.0 5.0 0.00 0.00 0.00 69 1018.9
20260509101747 54 166 1.0 5.0 0.00 0.00 0.00 69 1019.0
20260509101712 54 169 1.0 5.0 0.00 0.00 0.00 69 1019.0
20260509101701 54 224 1.0 4.0 0.00 0.00 0.00 69 1018.9
20260509101340 55 242 2.0 6.0 0.00 0.00 0.00 69 1018.8
20260509101239 55 273 2.0 6.0 0.00 0.00 0.00 69 1018.9
20260509101204 55 148 2.0 6.0 0.00 0.00 0.00 69 1018.8
20260509101151 55 186 1.0 6.0 0.00 0.00 0.00 68 1018.8
20260509100829 55 159 1.0 6.0 0.00 0.00 0.00 68 1018.8
20260509100732 55 205 2.0 6.0 0.00 0.00 0.00 68 1018.9
20260509100629 55 203 2.0 6.0 0.00 0.00 0.00 67 1018.9
20260509100532 55 171 2.0 6.0 0.00 0.00 0.00 67 1018.9
20260509100428 55 237 1.0 6.0 0.00 0.00 0.00 67 1018.9
20260509100330 55 185 1.0 5.0 0.00 0.00 0.00 67 1018.9
20260509100217 55 231 1.0 5.0 0.00 0.00 0.00 66 1019.0
20260509100118 55 209 1.0 5.0 0.00 0.00 0.00 66 1019.0
20260509100030 55 201 1.0 5.0 0.00 0.00 0.00 66 1019.0
20260509100015 55 219 1.0 5.0 0.00 0.00 0.00 66 1018.9
20260509095950 56 185 2.0 5.0 0.00 0.00 0.00 66 1018.9
20260509095612 56 219 2.0 4.0 0.00 0.00 0.00 65 1018.9
20260509095539 56 210 2.0 4.0 0.00 0.00 0.00 65 1018.8
20260509095525 56 190 1.0 4.0 0.00 0.00 0.00 64 1018.8
20260509095501 56 231 1.0 4.0 0.00 0.00 0.00 64 1018.8
20260509095229 56 153 2.0 6.0 0.00 0.00 0.00 64 1018.8
20260509094913 56 218 1.0 6.0 0.00 0.00 0.00 63 1018.8
20260509094830 56 219 1.0 6.0 0.00 0.00 0.00 63 1018.8
20260509094820 56 229 1.0 6.0 0.00 0.00 0.00 62 1018.8
20260509094808 56 279 1.0 6.0 0.00 0.00 0.00 62 1018.8
20260509094536 56 252 2.0 6.0 0.00 0.00 0.00 62 1018.8
20260509094201 57 287 1.0 4.0 0.00 0.00 0.00 62 1018.8
20260509094102 57 238 1.0 4.0 0.00 0.00 0.00 62 1018.8
20260509094002 57 238 1.0 4.0 0.00 0.00 0.00 62 1018.8
20260509093903 57 234 1.0 4.0 0.00 0.00 0.00 62 1018.8
20260509093804 57 179 1.0 4.0 0.00 0.00 0.00 61 1018.9
20260509093703 57 221 2.0 4.0 0.00 0.00 0.00 61 1018.9
20260509093603 57 223 1.0 4.0 0.00 0.00 0.00 61 1018.9
20260509093530 57 215 0.0 2.0 0.00 0.00 0.00 61 1018.9
20260509093514 57 182 0.0 2.0 0.00 0.00 0.00 61 1018.8
20260509093453 57 252 0.0 3.0 0.00 0.00 0.00 61 1018.9
20260509093223 57 252 0.0 4.0 0.00 0.00 0.00 60 1018.9
20260509092901 57 252 0.0 4.0 0.00 0.00 0.00 60 1018.8
20260509092800 58 252 0.0 4.0 0.00 0.00 0.00 59 1018.8
20260509092704 58 252 1.0 4.0 0.00 0.00 0.00 59 1018.9
20260509092602 58 258 1.0 4.0 0.00 0.00 0.00 59 1018.9
20260509092502 58 269 2.0 6.0 0.00 0.00 0.00 59 1018.9
20260509092401 58 258 2.0 6.0 0.00 0.00 0.00 59 1018.9
20260509092301 58 290 2.0 7.0 0.00 0.00 0.00 59 1018.8
20260509092200 58 239 2.0 7.0 0.00 0.00 0.00 59 1018.9
20260509092103 58 264 3.0 7.0 0.00 0.00 0.00 59 1018.9
20260509092001 58 262 3.0 7.0 0.00 0.00 0.00 59 1018.8
20260509091900 58 265 3.0 8.0 0.00 0.00 0.00 59 1018.8
20260509091801 58 261 3.0 8.0 0.00 0.00 0.00 59 1018.8
20260509091701 58 267 3.0 8.0 0.00 0.00 0.00 59 1018.8
20260509091601 58 267 4.0 8.0 0.00 0.00 0.00 59 1018.8
20260509091501 58 261 4.0 8.0 0.00 0.00 0.00 59 1018.8
20260509091401 58 250 4.0 8.0 0.00 0.00 0.00 59 1018.8
20260509091303 58 245 4.0 8.0 0.00 0.00 0.00 59 1018.8
20260509091235 58 254 4.0 8.0 0.00 0.00 0.00 59 1018.8
20260509091223 57 285 3.0 8.0 0.00 0.00 0.00 59 1018.7
20260509090904 57 240 4.0 8.0 0.00 0.00 0.00 58 1018.8
20260509090832 57 263 2.0 8.0 0.00 0.00 0.00 58 1018.8
20260509090821 57 254 1.0 6.0 0.00 0.00 0.00 58 1018.7
20260509090501 58 279 0.0 2.0 0.00 0.00 0.00 57 1018.8
20260509090402 58 254 1.0 2.0 0.00 0.00 0.00 57 1018.7
20260509090301 58 254 1.0 2.0 0.00 0.00 0.00 57 1018.7
20260509090201 58 247 1.0 2.0 0.00 0.00 0.00 57 1018.7
20260509090000 58 223 1.0 2.0 0.00 0.00 0.00 57 1018.7
20260509085901 58 205 0.0 2.0 0.00 0.00 0.00 57 1018.7
20260509085804 58 182 0.0 2.0 0.00 0.00 0.00 57 1018.7
20260509085702 58 279 0.0 3.0 0.00 0.00 0.00 57 1018.7
20260509085600 58 280 0.0 4.0 0.00 0.00 0.00 56 1018.7
20260509085502 58 280 0.0 4.0 0.00 0.00 0.00 56 1018.7
20260509085400 58 280 0.0 4.0 0.00 0.00 0.00 56 1018.7
20260509085301 58 280 0.0 4.0 0.00 0.00 0.00 56 1018.6
20260509085201 58 283 1.0 4.0 0.00 0.00 0.00 57 1018.6
20260509085102 58 275 1.0 4.0 0.00 0.00 0.00 56 1018.6
20260509085001 58 276 2.0 6.0 0.00 0.00 0.00 56 1018.6
20260509084904 59 284 2.0 6.0 0.00 0.00 0.00 56 1018.5
20260509084801 59 288 2.0 9.0 0.00 0.00 0.00 56 1018.5
20260509084701 59 267 1.0 9.0 0.00 0.00 0.00 56 1018.5
20260509084601 59 201 1.0 9.0 0.00 0.00 0.00 56 1018.4
20260509084544 59 156 1.0 9.0 0.00 0.00 0.00 56 1018.4
20260509084527 59 276 2.0 9.0 0.00 0.00 0.00 56 1018.4
20260509084147 59 246 3.0 9.0 0.00 0.00 0.00 56 1018.3
20260509084047 59 243 4.0 9.0 0.00 0.00 0.00 56 1018.3
20260509083945 59 226 3.0 9.0 0.00 0.00 0.00 57 1018.3
20260509083928 59 273 2.0 6.0 0.00 0.00 0.00 57 1018.2
20260509083905 59 273 2.0 5.0 0.00 0.00 0.00 57 1018.4
20260509083548 59 267 1.0 8.0 0.00 0.00 0.00 57 1018.3
20260509083531 58 263 2.0 8.0 0.00 0.00 0.00 57 1018.3
20260509083519 58 265 2.0 8.0 0.00 0.00 0.00 57 1018.3
20260509083141 58 246 1.0 8.0 0.00 0.00 0.00 57 1018.4
20260509083035 58 264 1.0 8.0 0.00 0.00 0.00 57 1018.4
20260509082934 58 73 2.0 8.0 0.00 0.00 0.00 57 1018.4
20260509082836 58 226 2.0 8.0 0.00 0.00 0.00 56 1018.4
20260509082729 58 184 1.0 8.0 0.00 0.00 0.00 56 1018.4
20260509082641 58 284 0.0 3.0 0.00 0.00 0.00 56 1018.4
20260509082629 58 261 0.0 3.0 0.00 0.00 0.00 56 1018.4
20260509082621 58 261 1.0 7.0 0.00 0.00 0.00 57 1018.4
20260509082231 58 244 0.0 7.0 0.00 0.00 0.00 57 1018.3
20260509082130 58 244 0.0 7.0 0.00 0.00 0.00 57 1018.3
20260509082031 58 244 0.0 7.0 0.00 0.00 0.00 57 1018.3
20260509081932 58 244 0.0 7.0 0.00 0.00 0.00 57 1018.2
20260509081829 58 244 0.0 7.0 0.00 0.00 0.00 57 1018.2
20260509081727 59 244 1.0 7.0 0.00 0.00 0.00 57 1018.2
20260509081645 58 244 2.0 7.0 0.00 0.00 0.00 57 1018.2
20260509081631 58 228 1.0 7.0 0.00 0.00 0.00 57 1018.1
20260509081620 59 254 1.0 7.0 0.00 0.00 0.00 57 1018.1
20260509081604 59 244 2.0 7.0 0.00 0.00 0.00 57 1018.1
20260509081046 59 229 1.0 7.0 0.00 0.00 0.00 56 1018.1
20260509081035 59 192 2.0 7.0 0.00 0.00 0.00 56 1018.1
20260509080709 59 265 1.0 6.0 0.00 0.00 0.00 56 1018.1
20260509080644 59 270 2.0 6.0 0.00 0.00 0.00 55 1018.1
20260509080629 59 277 2.0 6.0 0.00 0.00 0.00 55 1018.1
20260509080311 59 252 2.0 6.0 0.00 0.00 0.00 54 1018.2
20260509080202 59 234 2.0 5.0 0.00 0.00 0.00 54 1018.2
20260509080004 60 167 2.0 5.0 0.00 0.00 0.00 54 1018.2
20260509075905 60 188 1.0 5.0 0.00 0.00 0.00 53 1018.1
20260509075845 60 138 1.0 5.0 0.00 0.00 0.00 53 1018.1
20260509075822 60 194 1.0 5.0 0.00 0.00 0.00 53 1018.1
20260509075515 59 254 1.0 6.0 0.00 0.00 0.00 53 1018.1
20260509075500 59 165 1.0 8.0 0.00 0.00 0.00 53 1018.0
20260509075446 59 270 1.0 8.0 0.00 0.00 0.00 53 1018.0
20260509075424 59 225 1.0 8.0 0.00 0.00 0.00 53 1018.0
20260509075340 59 215 1.0 8.0 0.00 0.00 0.00 53 1018.0
20260509074808 59 238 2.0 8.0 0.00 0.00 0.00 53 1018.0
20260509074703 59 241 2.0 8.0 0.00 0.00 0.00 53 1018.0
20260509074612 59 262 3.0 8.0 0.00 0.00 0.00 53 1018.0
20260509074556 59 187 2.0 8.0 0.00 0.00 0.00 53 1018.0
20260509074545 59 273 2.0 7.0 0.00 0.00 0.00 53 1018.0
20260509074249 59 188 2.0 7.0 0.00 0.00 0.00 53 1018.0
20260509074236 59 155 3.0 7.0 0.00 0.00 0.00 53 1018.0
20260509073958 60 263 2.0 7.0 0.00 0.00 0.00 53 1018.0
20260509073948 60 203 2.0 6.0 0.00 0.00 0.00 52 1018.0
20260509073924 60 229 1.0 6.0 0.00 0.00 0.00 52 1018.0
20260509073653 60 234 3.0 6.0 0.00 0.00 0.00 52 1017.9
20260509073642 60 239 3.0 6.0 0.00 0.00 0.00 51 1018.0
20260509073629 60 173 2.0 6.0 0.00 0.00 0.00 51 1018.0
20260509073606 60 254 2.0 6.0 0.00 0.00 0.00 51 1018.0
20260509073115 60 238 1.0 6.0 0.00 0.00 0.00 50 1017.9
20260509073102 60 211 1.0 6.0 0.00 0.00 0.00 50 1017.9
20260509072558 60 207 2.0 6.0 0.00 0.00 0.00 50 1017.8
20260509072546 61 216 2.0 4.0 0.00 0.00 0.00 50 1017.8
20260509072532 61 206 1.0 7.0 0.00 0.00 0.00 50 1017.8
20260509072507 61 263 1.0 7.0 0.00 0.00 0.00 50 1017.8
20260509072455 61 246 1.0 7.0 0.00 0.00 0.00 50 1017.8
20260509071936 61 171 2.0 7.0 0.00 0.00 0.00 50 1017.8
20260509071602 61 163 2.0 7.0 0.00 0.00 0.00 50 1017.7
20260509071500 61 185 2.0 7.0 0.00 0.00 0.00 49 1017.7
20260509071402 61 244 2.0 7.0 0.00 0.00 0.00 49 1017.8
20260509071303 61 182 2.0 7.0 0.00 0.00 0.00 49 1017.7
20260509071201 61 212 1.0 7.0 0.00 0.00 0.00 49 1017.7
20260509071135 61 161 1.0 7.0 0.00 0.00 0.00 49 1017.8
20260509071124 61 190 2.0 7.0 0.00 0.00 0.00 49 1017.7
20260509070805 61 168 2.0 7.0 0.00 0.00 0.00 48 1017.7
20260509070734 61 155 2.0 7.0 0.00 0.00 0.00 48 1017.7
20260509070721 61 207 2.0 7.0 0.00 0.00 0.00 48 1017.7
20260509070709 61 165 2.0 6.0 0.00 0.00 0.00 48 1017.7
20260509070433 62 192 2.0 7.0 0.00 0.00 0.00 48 1017.6
20260509070101 62 185 3.0 7.0 0.00 0.00 0.00 47 1017.5
20260509070003 62 240 2.0 8.0 0.00 0.00 0.00 47 1017.5
20260509065901 62 263 1.0 8.0 0.00 0.00 0.00 47 1017.5
20260509065803 62 241 1.0 8.0 0.00 0.00 0.00 47 1017.5
20260509065702 62 257 3.0 8.0 0.00 0.00 0.00 47 1017.5
20260509065602 62 171 3.0 8.0 0.00 0.00 0.00 47 1017.4
20260509065504 61 234 2.0 8.0 0.00 0.00 0.00 47 1017.4
20260509065402 61 258 3.0 8.0 0.00 0.00 0.00 47 1017.4
20260509065306 61 250 4.0 8.0 0.00 0.00 0.00 47 1017.4
20260509065202 61 310 4.0 8.0 0.00 0.00 0.00 47 1017.4
20260509065119 61 271 3.0 8.0 0.00 0.00 0.00 46 1017.4
20260509065105 61 277 4.0 8.0 0.00 0.00 0.00 46 1017.4
20260509065053 61 257 4.0 8.0 0.00 0.00 0.00 47 1017.4
20260509064733 61 273 4.0 8.0 0.00 0.00 0.00 46 1017.4
20260509064723 61 265 3.0 8.0 0.00 0.00 0.00 46 1017.4
20260509064402 60 277 2.0 5.0 0.00 0.00 0.00 47 1017.4
20260509064301 60 236 1.0 5.0 0.00 0.00 0.00 47 1017.4
20260509064204 60 170 1.0 5.0 0.00 0.00 0.00 47 1017.4
20260509064102 60 238 1.0 5.0 0.00 0.00 0.00 47 1017.4
20260509064009 60 256 1.0 5.0 0.00 0.00 0.00 46 1017.4
20260509063950 60 194 2.0 5.0 0.00 0.00 0.00 46 1017.4
20260509063939 60 249 2.0 5.0 0.00 0.00 0.00 46 1017.3
20260509063651 61 200 1.0 5.0 0.00 0.00 0.00 46 1017.4
20260509063639 61 256 0.0 3.0 0.00 0.00 0.00 46 1017.4
20260509063630 61 240 0.0 3.0 0.00 0.00 0.00 46 1017.4
20260509063616 61 263 0.0 3.0 0.00 0.00 0.00 46 1017.4
20260509063556 61 210 1.0 3.0 0.00 0.00 0.00 46 1017.4
20260509063325 61 259 0.0 3.0 0.00 0.00 0.00 46 1017.4
20260509063054 61 254 0.0 1.0 0.00 0.00 0.00 45 1017.4
20260509062533 61 273 0.0 1.0 0.00 0.00 0.00 44 1017.4
20260509062523 61 273 0.0 1.0 0.00 0.00 0.00 44 1017.3
20260509062201 61 273 0.0 2.0 0.00 0.00 0.00 44 1017.3
20260509062105 62 273 0.0 2.0 0.00 0.00 0.00 44 1017.3
20260509062021 62 273 0.0 2.0 0.00 0.00 0.00 44 1017.3
20260509062011 62 273 0.0 2.0 0.00 0.00 0.00 44 1017.2
20260509062001 62 241 0.0 2.0 0.00 0.00 0.00 44 1017.2
20260509061647 62 254 0.0 2.0 0.00 0.00 0.00 44 1017.2
20260509061635 62 259 1.0 2.0 0.00 0.00 0.00 44 1017.2
20260509061359 62 287 1.0 2.0 0.00 0.00 0.00 44 1017.2
20260509061336 62 259 1.0 2.0 0.00 0.00 0.00 44 1017.1
20260509061105 62 243 0.0 2.0 0.00 0.00 0.00 43 1017.2
20260509060741 62 251 0.0 3.0 0.00 0.00 0.00 43 1017.1
20260509060641 62 258 1.0 3.0 0.00 0.00 0.00 43 1017.1
20260509060540 62 258 1.0 3.0 0.00 0.00 0.00 42 1017.1
20260509060437 63 255 1.0 3.0 0.00 0.00 0.00 42 1017.0
20260509060339 63 261 1.0 3.0 0.00 0.00 0.00 42 1017.0
20260509060238 63 261 1.0 3.0 0.00 0.00 0.00 42 1017.0
20260509060135 63 281 1.0 3.0 0.00 0.00 0.00 42 1017.0
20260509060034 63 251 1.0 3.0 0.00 0.00 0.00 42 1017.0
20260509055937 63 254 0.0 3.0 0.00 0.00 0.00 41 1017.0
20260509055833 63 110 0.0 3.0 0.00 0.00 0.00 41 1017.1
20260509055733 63 110 0.0 4.0 0.00 0.00 0.00 42 1017.1
20260509055702 63 110 0.0 4.0 0.00 0.00 0.00 41 1017.0
20260509055651 63 109 1.0 4.0 0.00 0.00 0.00 41 1017.1
20260509055331 63 92 1.0 4.0 0.00 0.00 0.00 41 1017.1
20260509055228 64 181 1.0 4.0 0.00 0.00 0.00 41 1017.0
20260509055155 64 136 1.0 4.0 0.00 0.00 0.00 41 1017.1
20260509055144 64 84 2.0 4.0 0.00 0.00 0.00 41 1017.0
20260509054846 64 141 1.0 4.0 0.00 0.00 0.00 41 1017.0
20260509054800 64 80 1.0 4.0 0.00 0.00 0.00 40 1017.0
20260509054738 64 150 1.0 4.0 0.00 0.00 0.00 41 1017.0
20260509054413 64 105 2.0 4.0 0.00 0.00 0.00 40 1017.0
20260509054312 64 131 2.0 4.0 0.00 0.00 0.00 40 1017.1
20260509054215 64 137 2.0 4.0 0.00 0.00 0.00 40 1017.0
20260509054110 64 123 2.0 4.0 0.00 0.00 0.00 39 1017.0
20260509054010 64 146 2.0 4.0 0.00 0.00 0.00 39 1017.0
20260509053910 64 157 1.0 4.0 0.00 0.00 0.00 39 1017.0
20260509053808 64 143 1.0 4.0 0.00 0.00 0.00 39 1017.0
20260509053717 64 147 2.0 4.0 0.00 0.00 0.00 39 1017.0
20260509053607 64 198 2.0 9.0 0.00 0.00 0.00 39 1016.9
20260509053510 64 168 1.0 9.0 0.00 0.00 0.00 39 1016.9
20260509053446 65 252 1.0 9.0 0.00 0.00 0.00 39 1016.9
20260509053432 65 252 1.0 9.0 0.00 0.00 0.00 39 1016.9
20260509053105 65 273 1.0 9.0 0.00 0.00 0.00 39 1016.8
20260509053004 65 224 2.0 9.0 0.00 0.00 0.00 39 1016.8
20260509052938 65 227 2.0 9.0 0.00 0.00 0.00 39 1016.8
20260509052927 65 265 3.0 9.0 0.00 0.00 0.00 39 1016.7
20260509052600 64 236 2.0 9.0 0.00 0.00 0.00 39 1016.7
20260509052535 64 256 3.0 7.0 0.00 0.00 0.00 39 1016.7
20260509052524 64 279 3.0 7.0 0.00 0.00 0.00 39 1016.7
20260509052207 64 224 3.0 7.0 0.00 0.00 0.00 39 1016.7
20260509052100 64 270 2.0 7.0 0.00 0.00 0.00 39 1016.6
20260509052001 64 213 3.0 7.0 0.00 0.00 0.00 40 1016.6
20260509051902 64 257 3.0 7.0 0.00 0.00 0.00 40 1016.6
20260509051821 64 230 4.0 7.0 0.00 0.00 0.00 40 1016.7
20260509051704 64 275 3.0 7.0 0.00 0.00 0.00 40 1016.7
20260509051555 64 280 1.0 6.0 0.00 0.00 0.00 40 1016.7
20260509051454 64 240 1.0 6.0 0.00 0.00 0.00 40 1016.7
20260509051432 64 221 1.0 3.0 0.00 0.00 0.00 40 1016.7
20260509051418 64 232 1.0 3.0 0.00 0.00 0.00 40 1016.7
20260509051044 65 254 2.0 3.0 0.00 0.00 0.00 39 1016.7
20260509050946 65 286 1.0 4.0 0.00 0.00 0.00 39 1016.6
20260509050844 65 262 0.0 8.0 0.00 0.00 0.00 39 1016.6
20260509050744 65 213 1.0 8.0 0.00 0.00 0.00 38 1016.4
20260509050637 66 201 1.0 8.0 0.00 0.00 0.00 38 1016.4
20260509050537 66 223 2.0 8.0 0.00 0.00 0.00 38 1016.4
20260509050430 66 263 1.0 8.0 0.00 0.00 0.00 37 1016.4
20260509050334 66 187 1.0 8.0 0.00 0.00 0.00 38 1016.4
20260509050231 66 242 1.0 8.0 0.00 0.00 0.00 37 1016.3
20260509050134 66 224 2.0 8.0 0.00 0.00 0.00 37 1016.3
20260509050030 66 232 3.0 8.0 0.00 0.00 0.00 37 1016.3
20260509045932 66 269 3.0 8.0 0.00 0.00 0.00 37 1016.3
20260509045829 66 240 2.0 6.0 0.00 0.00 0.00 37 1016.3
20260509045814 66 288 2.0 6.0 0.00 0.00 0.00 37 1016.3
20260509045750 65 273 2.0 6.0 0.00 0.00 0.00 37 1016.3
20260509045430 65 270 2.0 6.0 0.00 0.00 0.00 37 1016.3
20260509045330 65 263 3.0 6.0 0.00 0.00 0.00 37 1016.3
20260509045230 65 248 4.0 6.0 0.00 0.00 0.00 38 1016.3
20260509045130 65 259 3.0 6.0 0.00 0.00 0.00 38 1016.2
20260509045029 65 248 2.0 4.0 0.00 0.00 0.00 38 1016.2
20260509044931 65 271 2.0 4.0 0.00 0.00 0.00 38 1016.3
20260509044856 65 288 2.0 4.0 0.00 0.00 0.00 38 1016.2
20260509044843 65 254 2.0 4.0 0.00 0.00 0.00 39 1016.3
20260509044819 65 259 1.0 3.0 0.00 0.00 0.00 38 1016.3
20260509044432 65 261 0.0 4.0 0.00 0.00 0.00 39 1016.2
20260509044412 65 229 0.0 4.0 0.00 0.00 0.00 39 1016.2
20260509044359 65 229 0.0 4.0 0.00 0.00 0.00 39 1016.3
20260509044030 65 222 1.0 4.0 0.00 0.00 0.00 39 1016.2
20260509043930 65 252 1.0 4.0 0.00 0.00 0.00 38 1016.2
20260509043911 65 241 1.0 4.0 0.00 0.00 0.00 39 1016.2
20260509043900 65 171 1.0 6.0 0.00 0.00 0.00 39 1016.2
20260509043532 65 290 2.0 6.0 0.00 0.00 0.00 39 1016.2
20260509043425 65 234 2.0 6.0 0.00 0.00 0.00 38 1016.2
20260509043325 65 270 2.0 6.0 0.00 0.00 0.00 38 1016.2
20260509043225 65 265 1.0 6.0 0.00 0.00 0.00 38 1016.2
20260509043156 65 222 1.0 6.0 0.00 0.00 0.00 39 1016.2
20260509043141 65 217 2.0 6.0 0.00 0.00 0.00 38 1016.2
20260509042823 65 218 2.0 7.0 0.00 0.00 0.00 38 1016.2
20260509042720 65 181 2.0 7.0 0.00 0.00 0.00 39 1016.2
20260509042625 65 288 2.0 7.0 0.00 0.00 0.00 39 1016.2
20260509042610 65 233 1.0 7.0 0.00 0.00 0.00 39 1016.2
20260509042558 65 182 2.0 7.0 0.00 0.00 0.00 39 1016.2
20260509042545 65 232 2.0 7.0 0.00 0.00 0.00 39 1016.1
20260509042532 65 214 2.0 9.0 0.00 0.00 0.00 39 1016.1
20260509042509 65 178 2.0 10.0 0.00 0.00 0.00 39 1016.1
20260509041713 66 238 2.0 10.0 0.00 0.00 0.00 39 1016.1
20260509041608 66 219 2.0 10.0 0.00 0.00 0.00 38 1016.0
20260509041508 66 240 4.0 10.0 0.00 0.00 0.00 38 1016.0
20260509041407 66 211 4.0 10.0 0.00 0.00 0.00 38 1016.0
20260509041304 66 241 3.0 10.0 0.00 0.00 0.00 38 1015.9
20260509041202 67 169 1.0 10.0 0.00 0.00 0.00 38 1015.8
20260509041102 67 177 1.0 6.0 0.00 0.00 0.00 37 1015.9
20260509041002 67 250 2.0 6.0 0.00 0.00 0.00 36 1015.8
20260509040903 67 174 4.0 6.0 0.00 0.00 0.00 36 1015.7
20260509040806 67 167 4.0 6.0 0.00 0.00 0.00 35 1015.8
20260509040748 67 168 2.0 5.0 0.00 0.00 0.00 35 1015.7
20260509040723 68 173 1.0 4.0 0.00 0.00 0.00 34 1015.7
20260509040403 68 180 1.0 3.0 0.00 0.00 0.00 32 1015.7
20260509040303 68 206 2.0 3.0 0.00 0.00 0.00 31 1015.7
20260509040203 68 170 2.0 3.0 0.00 0.00 0.00 31 1015.7
20260509040005 68 182 1.0 3.0 0.00 0.00 0.00 30 1015.6
20260509035933 69 188 0.0 2.0 0.00 0.00 0.00 30 1015.6
20260509035920 69 196 1.0 2.0 0.00 0.00 0.00 30 1015.5
20260509035601 69 262 0.0 2.0 0.00 0.00 0.00 30 1015.5
20260509035501 69 245 0.0 3.0 0.00 0.00 0.00 29 1015.5
20260509035401 69 244 0.0 3.0 0.00 0.00 0.00 29 1015.5
20260509035306 69 245 0.0 4.0 0.00 0.00 0.00 29 1015.5
20260509035204 69 258 0.0 6.0 0.00 0.00 0.00 29 1015.4
20260509035131 69 258 0.0 6.0 0.00 0.00 0.00 29 1015.4
20260509035120 70 258 0.0 6.0 0.00 0.00 0.00 29 1015.4
20260509034800 70 258 2.0 6.0 0.00 0.00 0.00 28 1015.4
20260509034729 70 254 2.0 6.0 0.00 0.00 0.00 28 1015.4
20260509034634 70 254 2.0 6.0 0.00 0.00 0.00 27 1015.4
20260509034622 70 256 3.0 6.0 0.00 0.00 0.00 27 1015.4
20260509034303 70 274 2.0 6.0 0.00 0.00 0.00 27 1015.3
20260509034201 70 271 2.0 6.0 0.00 0.00 0.00 27 1015.4
20260509034102 70 271 1.0 6.0 0.00 0.00 0.00 27 1015.4
20260509034001 70 263 2.0 6.0 0.00 0.00 0.00 27 1015.4
20260509033902 70 248 3.0 6.0 0.00 0.00 0.00 27 1015.4
20260509033803 70 276 3.0 6.0 0.00 0.00 0.00 27 1015.4
20260509033702 70 262 2.0 4.0 0.00 0.00 0.00 27 1015.3
20260509033627 70 255 1.0 4.0 0.00 0.00 0.00 27 1015.4
20260509033616 70 266 1.0 3.0 0.00 0.00 0.00 28 1015.3
20260509033605 70 257 1.0 3.0 0.00 0.00 0.00 28 1015.3
20260509033552 70 258 0.0 3.0 0.00 0.00 0.00 28 1015.3
20260509033538 70 150 1.0 2.0 0.00 0.00 0.00 27 1015.3
20260509033258 71 168 1.0 3.0 0.00 0.00 0.00 28 1015.2
20260509032809 71 202 0.0 4.0 0.00 0.00 0.00 27 1015.1
20260509032746 71 247 0.0 5.0 0.00 0.00 0.00 26 1015.0
20260509032516 71 273 2.0 5.0 0.00 0.00 0.00 25 1015.0
20260509032500 71 259 2.0 5.0 0.00 0.00 0.00 25 1015.0
20260509032449 71 293 2.0 5.0 0.00 0.00 0.00 25 1015.0
20260509032206 71 259 2.0 6.0 0.00 0.00 0.00 26 1014.9
20260509031659 71 263 1.0 6.0 0.00 0.00 0.00 25 1014.7
20260509031559 71 325 1.0 6.0 0.00 0.00 0.00 25 1014.8
20260509031547 71 305 1.0 6.0 0.00 0.00 0.00 25 1014.7
20260509031230 71 279 2.0 6.0 0.00 0.00 0.00 25 1014.7
20260509031129 71 281 3.0 6.0 0.00 0.00 0.00 25 1014.7
20260509031029 72 288 3.0 6.0 0.00 0.00 0.00 25 1014.6
20260509030929 72 277 3.0 6.0 0.00 0.00 0.00 25 1014.6
20260509030828 72 305 3.0 8.0 0.00 0.00 0.00 25 1014.6
20260509030729 72 281 1.0 11.0 0.00 0.00 0.00 25 1014.6
20260509030629 72 288 1.0 14.0 0.00 0.00 0.00 25 1014.5
20260509030530 72 315 1.0 14.0 0.00 0.00 0.00 25 1014.5
20260509030429 72 295 1.0 14.0 0.00 0.00 0.00 25 1014.5
20260509030330 72 284 1.0 14.0 0.00 0.00 0.00 25 1014.5
20260509030230 72 286 2.0 14.0 0.00 0.00 0.00 24 1014.5
20260509030206 72 255 2.0 14.0 0.00 0.00 0.00 24 1014.4
20260509030142 72 321 4.0 14.0 0.00 0.00 0.00 24 1014.4
20260509025820 73 271 6.0 14.0 0.00 0.00 0.00 24 1014.4
20260509025720 73 259 3.0 14.0 0.00 0.00 0.00 23 1014.4
20260509025619 73 262 4.0 9.0 0.00 0.00 0.00 23 1014.4
20260509025518 73 278 4.0 12.0 0.00 0.00 0.00 23 1014.4
20260509025417 73 263 3.0 12.0 0.00 0.00 0.00 23 1014.4
20260509025317 73 248 2.0 12.0 0.00 0.00 0.00 23 1014.4
20260509025216 73 337 2.0 12.0 0.00 0.00 0.00 23 1014.4
20260509025119 73 282 3.0 12.0 0.00 0.00 0.00 23 1014.4
20260509025016 73 284 4.0 12.0 0.00 0.00 0.00 23 1014.4
20260509024915 73 352 4.0 12.0 0.00 0.00 0.00 23 1014.4
20260509024815 73 308 4.0 12.0 0.00 0.00 0.00 22 1014.4
20260509024714 73 0 6.0 12.0 0.00 0.00 0.00 22 1014.4
20260509024616 74 277 5.0 12.0 0.00 0.00 0.00 23 1014.3
20260509024513 74 242 2.0 8.0 0.00 0.00 0.00 23 1014.4
20260509024412 74 288 2.0 8.0 0.00 0.00 0.00 23 1014.4
20260509024311 74 292 3.0 8.0 0.00 0.00 0.00 23 1014.4
20260509024213 74 272 3.0 8.0 0.00 0.00 0.00 23 1014.3
20260509024112 74 292 4.0 8.0 0.00 0.00 0.00 22 1014.3
20260509024013 74 286 3.0 11.0 0.00 0.00 0.00 23 1014.3
20260509023941 74 240 3.0 11.0 0.00 0.00 0.00 23 1014.3
20260509023929 74 294 3.0 11.0 0.00 0.00 0.00 23 1014.2
20260509023648 74 5 4.0 11.0 0.00 0.00 0.00 23 1014.2
20260509023626 74 267 4.0 11.0 0.00 0.00 0.00 23 1014.2
20260509023307 74 288 4.0 11.0 0.00 0.00 0.00 23 1014.2
20260509023203 75 332 6.0 11.0 0.00 0.00 0.00 22 1014.2
20260509023146 75 218 6.0 11.0 0.00 0.00 0.00 22 1014.2
20260509023122 75 290 4.0 10.0 0.00 0.00 0.00 24 1014.2
20260509022801 75 280 3.0 10.0 0.00 0.00 0.00 24 1014.1
20260509022704 75 290 4.0 10.0 0.00 0.00 0.00 24 1014.1
20260509022644 75 276 4.0 10.0 0.00 0.00 0.00 23 1014.1
20260509022622 75 292 3.0 10.0 0.00 0.00 0.00 23 1014.1
20260509022307 75 249 3.0 10.0 0.00 0.00 0.00 23 1014.1
20260509022205 76 290 4.0 10.0 0.00 0.00 0.00 23 1014.0
20260509022148 76 296 5.0 10.0 0.00 0.00 0.00 23 1014.0
20260509022121 76 291 6.0 10.0 0.00 0.00 0.00 22 1014.0
20260509021801 76 290 4.0 10.0 0.00 0.00 0.00 22 1014.0
20260509021701 76 284 5.0 10.0 0.00 0.00 0.00 23 1014.0
20260509021601 76 22 5.0 10.0 0.00 0.00 0.00 23 1013.9
20260509021500 76 282 4.0 10.0 0.00 0.00 0.00 22 1013.8
20260509021438 76 279 3.0 10.0 0.00 0.00 0.00 22 1013.8
20260509021426 76 328 3.0 10.0 0.00 0.00 0.00 23 1013.8
20260509021105 76 287 3.0 10.0 0.00 0.00 0.00 22 1013.8
20260509021002 77 269 3.0 8.0 0.00 0.00 0.00 23 1013.8
20260509020904 77 275 3.0 8.0 0.00 0.00 0.00 23 1013.8
20260509020801 77 303 2.0 8.0 0.00 0.00 0.00 22 1013.8
20260509020700 77 0 2.0 8.0 0.00 0.00 0.00 23 1013.8
20260509020601 77 324 3.0 8.0 0.00 0.00 0.00 23 1013.7
20260509020501 77 275 4.0 8.0 0.00 0.00 0.00 23 1013.7
20260509020401 77 292 4.0 8.0 0.00 0.00 0.00 24 1013.7
20260509020332 77 279 5.0 8.0 0.00 0.00 0.00 25 1013.7
20260509020315 76 266 4.0 13.0 0.00 0.00 0.00 24 1013.7
20260509020111 76 273 3.0 13.0 0.00 0.00 0.00 28 1013.6
20260509020002 76 242 2.0 13.0 0.00 0.00 0.00 29 1013.6
20260509015906 76 256 3.0 13.0 0.00 0.00 0.00 30 1013.6
20260509015801 76 256 3.0 13.0 0.00 0.00 0.00 31 1013.5
20260509015703 76 264 2.0 13.0 0.00 0.00 0.00 30 1013.5
20260509015600 76 171 2.0 13.0 0.00 0.00 0.00 33 1013.5
20260509015458 76 239 4.0 13.0 0.00 0.00 0.00 32 1013.6
20260509015357 76 248 5.0 13.0 0.00 0.00 0.00 32 1013.6
20260509015257 76 249 5.0 13.0 0.00 0.00 0.00 32 1013.6
20260509015157 76 246 6.0 12.0 0.00 0.00 0.00 32 1013.6
20260509015059 76 144 6.0 16.0 0.00 0.00 0.00 32 1013.6
20260509015026 76 275 4.0 16.0 0.00 0.00 0.00 32 1013.6
20260509015015 76 286 4.0 16.0 0.00 0.00 0.00 32 1013.7
20260509014724 76 263 4.0 16.0 0.00 0.00 0.00 32 1013.6
20260509014706 76 270 6.0 16.0 0.00 0.00 0.00 32 1013.6
20260509014643 76 274 6.0 16.0 0.00 0.00 0.00 32 1013.6
20260509014250 77 243 6.0 16.0 0.00 0.00 0.00 31 1013.5
20260509014150 77 250 5.0 16.0 0.00 0.00 0.00 31 1013.4
20260509014053 77 291 3.0 14.0 0.00 0.00 0.00 31 1013.4
20260509014021 77 163 2.0 14.0 0.00 0.00 0.00 31 1013.3
20260509014008 77 166 3.0 14.0 0.00 0.00 0.00 31 1013.3
20260509013956 77 142 6.0 14.0 0.00 0.00 0.00 31 1013.3
20260509013945 77 273 6.0 14.0 0.00 0.00 0.00 31 1013.3
20260509013933 77 293 5.0 13.0 0.00 0.00 0.00 31 1013.3
20260509013910 77 173 5.0 12.0 0.00 0.00 0.00 31 1013.4
20260509013636 77 248 5.0 11.0 0.00 0.00 0.00 31 1013.3
20260509013403 77 204 5.0 11.0 0.00 0.00 0.00 30 1013.3
20260509013119 77 219 3.0 11.0 0.00 0.00 0.00 30 1013.2
20260509012544 77 231 5.0 11.0 0.00 0.00 0.00 30 1013.4
20260509012438 78 246 6.0 11.0 0.00 0.00 0.00 30 1013.2
20260509012338 78 221 6.0 11.0 0.00 0.00 0.00 30 1013.3
20260509012236 78 171 4.0 11.0 0.00 0.00 0.00 29 1013.2
20260509012139 78 209 3.0 14.0 0.00 0.00 0.00 30 1013.2
20260509012121 78 257 3.0 16.0 0.00 0.00 0.00 30 1013.1
20260509012055 78 264 2.0 16.0 0.00 0.00 0.00 30 1013.2
20260509011733 78 240 4.0 16.0 0.00 0.00 0.00 30 1013.1
20260509011633 77 167 5.0 16.0 0.00 0.00 0.00 30 1013.0
20260509011607 77 248 6.0 16.0 0.00 0.00 0.00 30 1013.1
20260509011433 77 267 6.0 16.0 0.00 0.00 0.00 29 1013.1
20260509011329 77 234 5.0 16.0 0.00 0.00 0.00 29 1013.1
20260509011231 77 281 6.0 16.0 0.00 0.00 0.00 29 1013.1
20260509011130 77 168 8.0 16.0 0.00 0.00 0.00 29 1013.1
20260509011038 78 238 7.0 12.0 0.00 0.00 0.00 29 1013.1
20260509010929 78 254 6.0 13.0 0.00 0.00 0.00 29 1013.1
20260509010830 78 174 6.0 14.0 0.00 0.00 0.00 29 1013.1
20260509010729 78 225 5.0 14.0 0.00 0.00 0.00 29 1013.1
20260509010703 78 235 5.0 14.0 0.00 0.00 0.00 29 1013.0
20260509010650 78 237 6.0 14.0 0.00 0.00 0.00 28 1013.0
20260509010627 78 179 6.0 14.0 0.00 0.00 0.00 28 1013.1
20260509010352 78 161 6.0 14.0 0.00 0.00 0.00 28 1013.0
20260509010037 78 200 6.0 14.0 0.00 0.00 0.00 28 1012.9
20260509005928 78 200 7.0 14.0 0.00 0.00 0.00 28 1012.9
20260509005833 79 166 5.0 12.0 0.00 0.00 0.00 28 1013.0
20260509005727 79 267 4.0 14.0 0.00 0.00 0.00 28 1012.8
20260509005630 79 209 5.0 14.0 0.00 0.00 0.00 28 1012.8
20260509005531 79 322 6.0 14.0 0.00 0.00 0.00 28 1012.8
20260509005438 79 218 6.0 14.0 0.00 0.00 0.00 27 1012.8
20260509005422 79 210 4.0 14.0 0.00 0.00 0.00 27 1012.9
20260509005408 79 163 3.0 15.0 0.00 0.00 0.00 28 1012.9
20260509005137 79 286 6.0 15.0 0.00 0.00 0.00 28 1012.9
20260509005113 79 217 7.0 15.0 0.00 0.00 0.00 27 1012.9
20260509004841 79 188 5.0 15.0 0.00 0.00 0.00 27 1012.8
20260509004830 80 215 6.0 15.0 0.00 0.00 0.00 27 1012.9
20260509004817 80 229 6.0 15.0 0.00 0.00 0.00 27 1012.8
20260509004754 80 215 6.0 15.0 0.00 0.00 0.00 26 1012.9
20260509004229 80 231 5.0 12.0 0.00 0.00 0.00 25 1012.8
20260509004218 80 188 6.0 12.0 0.00 0.00 0.00 25 1012.8
20260509003936 80 256 6.0 12.0 0.00 0.00 0.00 25 1012.8
20260509003615 80 209 6.0 14.0 0.00 0.00 0.00 23 1012.9
20260509003521 80 148 5.0 14.0 0.00 0.00 0.00 22 1012.9
20260509003420 80 252 6.0 14.0 0.00 0.00 0.00 23 1012.8
20260509003403 80 223 7.0 14.0 0.00 0.00 0.00 22 1012.9
20260509003351 80 273 6.0 14.0 0.00 0.00 0.00 19 1012.8
20260509003338 80 257 6.0 14.0 0.00 0.00 0.00 19 1012.8
20260509003054 80 248 6.0 14.0 0.00 0.00 0.00 19 1012.8
20260509003041 80 262 8.0 15.0 0.00 0.00 0.00 18 1012.8
20260509002810 80 255 6.0 15.0 0.00 0.00 0.00 20 1012.8
20260509002756 80 263 7.0 15.0 0.00 0.00 0.00 20 1012.8
20260509002203 80 251 8.0 15.0 0.00 0.00 0.00 19 1012.8
20260509002108 80 234 7.0 15.0 0.00 0.00 0.00 19 1012.9
20260509002039 80 252 5.0 16.0 0.00 0.00 0.00 19 1012.8
20260509002024 80 273 5.0 16.0 0.00 0.00 0.00 19 1012.8
20260509001701 80 264 5.0 16.0 0.00 0.00 0.00 21 1012.9
20260509001604 80 227 5.0 16.0 0.00 0.00 0.00 24 1012.9
20260509001516 80 264 4.0 16.0 0.00 0.00 0.00 25 1012.9
20260509001402 80 250 5.0 16.0 0.00 0.00 0.00 26 1012.8
20260509001319 80 278 6.0 16.0 0.00 0.00 0.00 26 1012.9
20260509001204 80 259 7.0 16.0 0.00 0.00 0.00 26 1012.9
20260509001102 80 212 7.0 16.0 0.00 0.00 0.00 25 1013.0
20260509001011 80 182 5.0 12.0 0.00 0.00 0.00 25 1012.9
20260509000901 80 194 5.0 14.0 0.00 0.00 0.00 25 1012.9
20260509000802 80 231 4.0 14.0 0.00 0.00 0.00 25 1012.7
20260509000701 80 263 3.0 14.0 0.00 0.00 0.00 24 1012.8
20260509000602 80 263 4.0 14.0 0.00 0.00 0.00 23 1012.9
20260509000509 80 165 5.0 14.0 0.00 0.00 0.00 21 1012.9
20260509000403 80 257 5.0 14.0 0.00 0.00 0.00 21 1012.9
20260509000305 80 329 4.0 14.0 0.00 0.00 0.00 22 1013.0
20260509000204 80 240 5.0 14.0 0.00 0.00 0.00 21 1012.9
20260509000101 80 247 7.0 14.0 0.00 0.00 0.00 23 1013.0
20260509000009 80 225 6.0 14.0 0.00 0.00 0.00 26 1013.0
20260508235901 80 254 5.0 13.0 0.00 0.00 0.00 27 1013.0
20260508235802 80 128 4.0 13.0 0.00 0.00 0.00 26 1012.8
20260508235701 79 214 5.0 13.0 0.00 0.00 0.00 26 1012.9
20260508235602 79 217 4.0 13.0 0.00 0.00 0.00 26 1012.9
20260508235508 79 225 4.0 13.0 0.00 0.00 0.00 25 1012.9
20260508235403 79 205 5.0 13.0 0.00 0.00 0.00 26 1012.8
20260508235335 79 238 6.0 13.0 0.00 0.00 0.00 26 1012.9
20260508235322 79 223 6.0 13.0 0.00 0.00 0.00 26 1012.9
20260508235013 79 235 5.0 13.0 0.00 0.00 0.00 26 1012.9
20260508234901 79 245 5.0 13.0 0.00 0.00 0.00 26 1012.9
20260508234833 79 254 5.0 12.0 0.00 0.00 0.00 25 1012.9
20260508234819 79 214 4.0 12.0 0.00 0.00 0.00 26 1012.9
20260508234505 79 166 6.0 19.0 0.00 0.00 0.00 25 1012.9
20260508234357 79 209 4.0 19.0 0.00 0.00 0.00 26 1012.9
20260508234320 79 267 5.0 19.0 0.00 0.00 0.00 26 1012.8
20260508234308 79 254 5.0 19.0 0.00 0.00 0.00 26 1012.8
20260508234256 79 240 4.0 19.0 0.00 0.00 0.00 25 1012.9
20260508233854 79 139 5.0 19.0 0.00 0.00 0.00 25 1012.9
20260508233753 79 230 6.0 19.0 0.00 0.00 0.00 25 1013.0
20260508233654 79 231 8.0 19.0 0.00 0.00 0.00 24 1013.0
20260508233552 79 178 7.0 19.0 0.00 0.00 0.00 24 1013.0
20260508233501 79 230 6.0 13.0 0.00 0.00 0.00 24 1013.0
20260508233351 79 175 5.0 13.0 0.00 0.00 0.00 24 1013.0
20260508233318 80 148 4.0 13.0 0.00 0.00 0.00 25 1013.0
20260508233149 79 286 5.0 13.0 0.00 0.00 0.00 24 1013.0
20260508233049 79 248 6.0 13.0 0.00 0.00 0.00 24 1012.9
20260508232959 80 183 6.0 13.0 0.00 0.00 0.00 23 1013.0
20260508232848 80 193 6.0 13.0 0.00 0.00 0.00 24 1013.0
20260508232747 80 115 8.0 13.0 0.00 0.00 0.00 24 1013.1
20260508232646 80 171 7.0 13.0 0.00 0.00 0.00 23 1013.0
20260508232546 80 168 6.0 13.0 0.00 0.00 0.00 23 1013.1
20260508232500 80 241 6.0 11.0 0.00 0.00 0.00 23 1013.2
20260508232357 80 246 5.0 11.0 0.00 0.00 0.00 23 1013.1
20260508232339 80 201 4.0 11.0 0.00 0.00 0.00 23 1013.1
20260508232325 80 230 3.0 14.0 0.00 0.00 0.00 23 1013.2
20260508232314 80 282 4.0 14.0 0.00 0.00 0.00 24 1013.1
20260508232306 80 204 4.0 14.0 0.00 0.00 0.00 23 1013.1
20260508232238 80 19 4.0 14.0 0.00 0.00 0.00 23 1013.1
20260508232006 80 263 4.0 14.0 0.00 0.00 0.00 23 1013.2
20260508231503 80 113 6.0 14.0 0.00 0.00 0.00 23 1013.1
20260508231137 80 215 3.0 10.0 0.00 0.00 0.00 25 1013.2
20260508231036 80 186 4.0 10.0 0.00 0.00 0.00 24 1013.2
20260508230935 80 190 5.0 10.0 0.00 0.00 0.00 24 1013.2
20260508230835 80 261 5.0 10.0 0.00 0.00 0.00 23 1013.1
20260508230804 80 164 5.0 10.0 0.00 0.00 0.00 23 1013.1
20260508230753 80 168 4.0 12.0 0.00 0.00 0.00 23 1013.1
20260508230433 80 279 4.0 12.0 0.00 0.00 0.00 23 1013.1
20260508230406 80 247 5.0 12.0 0.00 0.00 0.00 23 1013.2
20260508230351 80 251 5.0 12.0 0.00 0.00 0.00 23 1013.2
20260508230031 80 223 3.0 12.0 0.00 0.00 0.00 23 1013.1
20260508225929 80 244 4.0 12.0 0.00 0.00 0.00 23 1013.1
20260508225829 80 223 5.0 12.0 0.00 0.00 0.00 23 1013.1
20260508225732 80 181 4.0 12.0 0.00 0.00 0.00 23 1013.2
20260508225714 80 222 4.0 14.0 0.00 0.00 0.00 22 1013.2
20260508225659 80 167 4.0 14.0 0.00 0.00 0.00 22 1013.3
20260508225330 80 239 4.0 14.0 0.00 0.00 0.00 23 1013.2
20260508225231 80 207 4.0 14.0 0.00 0.00 0.00 23 1013.2
20260508225129 80 269 4.0 14.0 0.00 0.00 0.00 23 1013.2
20260508225028 80 182 4.0 14.0 0.00 0.00 0.00 24 1013.2
20260508224928 80 264 6.0 14.0 0.00 0.00 0.00 24 1013.2
20260508224834 80 219 6.0 14.0 0.00 0.00 0.00 23 1013.2
20260508224815 80 150 3.0 14.0 0.00 0.00 0.00 24 1013.2
20260508224802 80 146 2.0 13.0 0.00 0.00 0.00 24 1013.2
20260508224750 80 114 4.0 13.0 0.00 0.00 0.00 23 1013.2
20260508224726 80 222 5.0 13.0 0.00 0.00 0.00 23 1013.2
20260508224714 80 186 4.0 13.0 0.00 0.00 0.00 23 1013.2
20260508224223 80 234 5.0 15.0 0.00 0.00 0.00 23 1013.2
20260508223847 80 265 4.0 15.0 0.00 0.00 0.00 24 1013.2
20260508223832 79 232 3.0 15.0 0.00 0.00 0.00 24 1013.2
20260508223821 79 125 4.0 15.0 0.00 0.00 0.00 25 1013.1
20260508223808 79 177 4.0 15.0 0.00 0.00 0.00 25 1013.2
20260508223216 79 170 4.0 10.0 0.00 0.00 0.00 25 1013.2
20260508223115 78 163 5.0 10.0 0.00 0.00 0.00 24 1013.2
20260508223014 78 271 5.0 11.0 0.00 0.00 0.00 24 1013.2
20260508222946 78 188 4.0 11.0 0.00 0.00 0.00 24 1013.1
20260508222933 78 175 5.0 11.0 0.00 0.00 0.00 25 1013.1
20260508222611 78 229 4.0 11.0 0.00 0.00 0.00 24 1013.2
20260508222510 79 150 4.0 11.0 0.00 0.00 0.00 25 1013.2
20260508222410 79 232 4.0 13.0 0.00 0.00 0.00 24 1013.2
20260508222309 79 212 5.0 13.0 0.00 0.00 0.00 24 1013.2
20260508222210 79 232 6.0 13.0 0.00 0.00 0.00 23 1013.2
20260508222107 79 299 5.0 13.0 0.00 0.00 0.00 24 1013.2
20260508222007 79 195 6.0 13.0 0.00 0.00 0.00 24 1013.2
20260508221906 79 248 6.0 13.0 0.00 0.00 0.00 24 1013.2
20260508221806 79 256 6.0 13.0 0.00 0.00 0.00 24 1013.3
20260508221705 79 162 6.0 13.0 0.00 0.00 0.00 24 1013.2
20260508221605 79 167 6.0 13.0 0.00 0.00 0.00 24 1013.2
20260508221504 80 223 7.0 13.0 0.00 0.00 0.00 23 1013.2
20260508221402 80 211 5.0 11.0 0.00 0.00 0.00 23 1013.2
20260508221304 80 238 5.0 11.0 0.00 0.00 0.00 23 1013.2
20260508221201 80 203 4.0 11.0 0.00 0.00 0.00 23 1013.2
20260508221101 80 154 4.0 12.0 0.00 0.00 0.00 24 1013.2
20260508221031 80 221 4.0 12.0 0.00 0.00 0.00 24 1013.2
20260508221003 80 159 4.0 12.0 0.00 0.00 0.00 24 1013.2
20260508220952 80 182 4.0 12.0 0.00 0.00 0.00 24 1013.1
20260508220601 79 168 4.0 12.0 0.00 0.00 0.00 25 1013.2
20260508220501 79 198 4.0 12.0 0.00 0.00 0.00 24 1013.2
20260508220401 79 202 5.0 12.0 0.00 0.00 0.00 24 1013.3
20260508220306 79 255 6.0 12.0 0.00 0.00 0.00 25 1013.2
20260508220202 79 298 6.0 12.0 0.00 0.00 0.00 24 1013.2
20260508220103 79 194 4.0 11.0 0.00 0.00 0.00 25 1013.2
20260508220046 79 282 3.0 10.0 0.00 0.00 0.00 25 1013.2
20260508220021 79 184 4.0 10.0 0.00 0.00 0.00 23 1013.2
20260508215705 79 251 5.0 13.0 0.00 0.00 0.00 25 1013.3
20260508215645 79 246 6.0 13.0 0.00 0.00 0.00 25 1013.3
20260508215633 79 164 6.0 14.0 0.00 0.00 0.00 24 1013.3
20260508215306 79 180 5.0 14.0 0.00 0.00 0.00 26 1013.4
20260508215200 79 234 5.0 14.0 0.00 0.00 0.00 25 1013.3
20260508215102 79 215 5.0 14.0 0.00 0.00 0.00 25 1013.3
20260508215004 79 206 7.0 14.0 0.00 0.00 0.00 25 1013.3
20260508214935 79 195 5.0 15.0 0.00 0.00 0.00 25 1013.4
20260508214922 79 213 5.0 15.0 0.00 0.00 0.00 25 1013.2
20260508214601 79 232 6.0 15.0 0.00 0.00 0.00 25 1013.4
20260508214501 79 180 4.0 15.0 0.00 0.00 0.00 25 1013.4
20260508214402 79 165 4.0 15.0 0.00 0.00 0.00 25 1013.4
20260508214306 79 205 5.0 15.0 0.00 0.00 0.00 25 1013.3
20260508214201 79 190 6.0 15.0 0.00 0.00 0.00 25 1013.2
20260508214102 79 182 6.0 15.0 0.00 0.00 0.00 25 1013.3
20260508214002 78 222 5.0 15.0 0.00 0.00 0.00 25 1013.4
20260508213909 78 223 4.0 12.0 0.00 0.00 0.00 26 1013.4